Wetterdaten: Freitag, 25.02.2022
Datum Zeit Temp. Aussen Temp. o. S. Temp +5cm Feuchte Auss Luftdruck Regen Sonnenschein Regendauer Solar Windben Empfang
25.02.2022 00:00 2,1 C 1,1 C -1,1 C 94 % 1016,8 hPa 0,0 l/m 0 min 0 min 0 W/m 6,4 km/h (2 Bft) 100,00 %
25.02.2022 00:02 2,1 C 1,7 C -1,1 C 94 % 1016,8 hPa 0,0 l/m 0 min 0 min 0 W/m 16,1 km/h (3 Bft) 97,37 %
25.02.2022 00:04 2,1 C 1,7 C -1,1 C 94 % 1016,9 hPa 0,0 l/m 0 min 0 min 0 W/m 12,9 km/h (3 Bft) 97,87 %
25.02.2022 00:08 2,1 C 1,7 C -1,1 C 94 % 1017,0 hPa 0,0 l/m 0 min 0 min 0 W/m 22,5 km/h (4 Bft) 95,79 %
25.02.2022 00:10 2,1 C 1,7 C -1,1 C 93 % 1017,0 hPa 0,0 l/m 0 min 0 min 0 W/m 12,9 km/h (3 Bft) 54,55 %
25.02.2022 00:12 2,1 C 1,7 C -1,1 C 93 % 1016,9 hPa 0,0 l/m 0 min 0 min 0 W/m 12,9 km/h (3 Bft) 95,74 %
25.02.2022 00:14 2,1 C 1,7 C -1,1 C 93 % 1017,0 hPa 0,0 l/m 0 min 0 min 0 W/m 16,1 km/h (3 Bft) 97,87 %
25.02.2022 00:16 2,1 C 1,7 C -1,1 C 93 % 1017,0 hPa 0,0 l/m 0 min 0 min 0 W/m 16,1 km/h (3 Bft) 100,00 %
25.02.2022 00:18 2,1 C 1,7 C -1,1 C 93 % 1017,0 hPa 0,0 l/m 0 min 0 min 0 W/m 6,4 km/h (2 Bft) 95,74 %
25.02.2022 00:20 2,1 C 1,7 C -1,1 C 93 % 1017,0 hPa 0,0 l/m 0 min 0 min 0 W/m 19,3 km/h (3 Bft) 97,83 %
25.02.2022 00:22 2,1 C 1,7 C -1,1 C 93 % 1017,0 hPa 0,0 l/m 0 min 0 min 0 W/m 19,3 km/h (3 Bft) 95,74 %
25.02.2022 00:24 2,1 C 1,7 C -1,1 C 93 % 1017,0 hPa 0,0 l/m 0 min 0 min 0 W/m 16,1 km/h (3 Bft) 95,74 %
25.02.2022 00:26 2,1 C 1,7 C -1,7 C 93 % 1017,1 hPa 0,0 l/m 0 min 0 min 0 W/m 19,3 km/h (3 Bft) 95,74 %
25.02.2022 00:28 2,2 C 1,7 C -1,1 C 93 % 1017,1 hPa 0,0 l/m 0 min 0 min 0 W/m 12,9 km/h (3 Bft) 95,74 %
25.02.2022 00:30 2,2 C 1,7 C -1,1 C 93 % 1017,2 hPa 0,0 l/m 0 min 0 min 0 W/m 22,5 km/h (4 Bft) 95,74 %
25.02.2022 00:32 2,2 C 1,7 C -1,1 C 93 % 1017,2 hPa 0,0 l/m 0 min 0 min 0 W/m 25,7 km/h (4 Bft) 93,48 %
25.02.2022 00:34 2,2 C 1,7 C -1,1 C 93 % 1017,2 hPa 0,0 l/m 0 min 0 min 0 W/m 16,1 km/h (3 Bft) 95,74 %
25.02.2022 00:36 2,2 C 1,7 C -1,1 C 92 % 1017,2 hPa 0,0 l/m 0 min 0 min 0 W/m 12,9 km/h (3 Bft) 95,74 %
25.02.2022 00:38 2,2 C 1,7 C -1,1 C 92 % 1017,2 hPa 0,0 l/m 0 min 0 min 0 W/m 12,9 km/h (3 Bft) 95,74 %
25.02.2022 00:40 2,2 C 1,7 C -1,1 C 92 % 1017,2 hPa 0,0 l/m 0 min 0 min 0 W/m 25,7 km/h (4 Bft) 97,87 %
25.02.2022 00:42 2,2 C 1,7 C -1,1 C 92 % 1017,2 hPa 0,0 l/m 0 min 0 min 0 W/m 19,3 km/h (3 Bft) 95,83 %
25.02.2022 00:44 2,2 C 1,7 C -1,1 C 92 % 1017,3 hPa 0,0 l/m 0 min 0 min 0 W/m 19,3 km/h (3 Bft) 100,00 %
25.02.2022 00:46 2,2 C 1,7 C -1,1 C 92 % 1017,3 hPa 0,0 l/m 0 min 0 min 0 W/m 19,3 km/h (3 Bft) 100,00 %
25.02.2022 00:48 2,2 C 1,7 C -1,1 C 92 % 1017,3 hPa 0,0 l/m 0 min 0 min 0 W/m 22,5 km/h (4 Bft) 100,00 %
25.02.2022 00:50 2,3 C 1,7 C -1,1 C 92 % 1017,3 hPa 0,0 l/m 0 min 0 min 0 W/m 22,5 km/h (4 Bft) 97,87 %
25.02.2022 00:52 2,2 C 1,7 C -1,1 C 92 % 1017,3 hPa 0,0 l/m 0 min 0 min 0 W/m 22,5 km/h (4 Bft) 100,00 %
25.02.2022 00:54 2,2 C 1,7 C -1,1 C 92 % 1017,3 hPa 0,0 l/m 0 min 0 min 0 W/m 19,3 km/h (3 Bft) 97,87 %
25.02.2022 00:56 2,2 C 1,7 C -1,1 C 92 % 1017,3 hPa 0,0 l/m 0 min 0 min 0 W/m 19,3 km/h (3 Bft) 84,78 %
25.02.2022 00:58 2,2 C 1,7 C -1,1 C 92 % 1017,3 hPa 0,0 l/m 0 min 0 min 0 W/m 16,1 km/h (3 Bft) 71,11 %
25.02.2022 01:00 2,3 C 1,7 C -1,1 C 92 % 1017,3 hPa 0,0 l/m 0 min 0 min 0 W/m 12,9 km/h (3 Bft) 100,00 %
25.02.2022 01:02 2,2 C 1,7 C -1,1 C 91 % 1017,3 hPa 0,0 l/m 0 min 0 min 0 W/m 12,9 km/h (3 Bft) 100,00 %
25.02.2022 01:04 2,2 C 1,7 C -1,1 C 92 % 1017,3 hPa 0,0 l/m 0 min 0 min 0 W/m 12,9 km/h (3 Bft) 100,00 %
25.02.2022 01:06 2,2 C 1,7 C -1,1 C 92 % 1017,4 hPa 0,0 l/m 0 min 0 min 0 W/m 16,1 km/h (3 Bft) 97,83 %
25.02.2022 01:08 2,2 C 1,7 C -1,1 C 92 % 1017,3 hPa 0,0 l/m 0 min 0 min 0 W/m 16,1 km/h (3 Bft) 100,00 %
25.02.2022 01:10 2,2 C 1,7 C -1,1 C 92 % 1017,4 hPa 0,0 l/m 0 min 0 min 0 W/m 12,9 km/h (3 Bft) 100,00 %
25.02.2022 01:12 2,2 C 1,7 C -1,1 C 92 % 1017,3 hPa 0,0 l/m 0 min 0 min 0 W/m 12,9 km/h (3 Bft) 97,56 %
25.02.2022 01:14 2,2 C 1,7 C -1,1 C 92 % 1017,4 hPa 0,0 l/m 0 min 0 min 0 W/m 12,9 km/h (3 Bft) 100,00 %
25.02.2022 01:16 2,2 C 1,7 C -1,1 C 92 % 1017,4 hPa 0,0 l/m 0 min 0 min 0 W/m 19,3 km/h (3 Bft) 100,00 %
25.02.2022 01:18 2,2 C 1,7 C -1,1 C 92 % 1017,4 hPa 0,0 l/m 0 min 0 min 0 W/m 12,9 km/h (3 Bft) 100,00 %
25.02.2022 01:20 2,2 C 1,7 C -1,1 C 91 % 1017,4 hPa 0,0 l/m 0 min 0 min 0 W/m 9,7 km/h (2 Bft) 100,00 %
25.02.2022 01:22 2,2 C 1,7 C -1,1 C 91 % 1017,4 hPa 0,0 l/m 0 min 0 min 0 W/m 12,9 km/h (3 Bft) 100,00 %
25.02.2022 01:24 2,3 C 1,7 C -1,1 C 91 % 1017,5 hPa 0,0 l/m 0 min 0 min 0 W/m 16,1 km/h (3 Bft) 100,00 %
25.02.2022 01:26 2,3 C 1,7 C -1,1 C 91 % 1017,5 hPa 0,0 l/m 0 min 0 min 0 W/m 19,3 km/h (3 Bft) 100,00 %
25.02.2022 01:28 2,3 C 1,7 C -1,1 C 91 % 1017,5 hPa 0,0 l/m 0 min 0 min 0 W/m 12,9 km/h (3 Bft) 100,00 %
25.02.2022 01:30 2,3 C 1,7 C -1,1 C 91 % 1017,5 hPa 0,0 l/m 0 min 0 min 0 W/m 12,9 km/h (3 Bft) 100,00 %
25.02.2022 01:32 2,3 C 1,7 C -1,1 C 91 % 1017,6 hPa 0,0 l/m 0 min 0 min 0 W/m 12,9 km/h (3 Bft) 100,00 %
25.02.2022 01:34 2,2 C 1,7 C -1,1 C 91 % 1017,6 hPa 0,0 l/m 0 min 0 min 0 W/m 12,9 km/h (3 Bft) 100,00 %
25.02.2022 01:36 2,3 C 1,7 C -1,1 C 91 % 1017,6 hPa 0,0 l/m 0 min 0 min 0 W/m 12,9 km/h (3 Bft) 100,00 %
25.02.2022 01:38 2,2 C 1,7 C -1,1 C 91 % 1017,7 hPa 0,0 l/m 0 min 0 min 0 W/m 16,1 km/h (3 Bft) 100,00 %
25.02.2022 01:40 2,3 C 1,7 C -1,1 C 91 % 1017,6 hPa 0,0 l/m 0 min 0 min 0 W/m 16,1 km/h (3 Bft) 97,87 %
25.02.2022 01:42 2,3 C 1,7 C -1,1 C 91 % 1017,7 hPa 0,0 l/m 0 min 0 min 0 W/m 12,9 km/h (3 Bft) 100,00 %
25.02.2022 01:44 2,2 C 1,7 C -1,1 C 91 % 1017,8 hPa 0,0 l/m 0 min 0 min 0 W/m 6,4 km/h (2 Bft) 82,61 %
25.02.2022 01:46 2,3 C 1,7 C -1,1 C 91 % 1017,7 hPa 0,0 l/m 0 min 0 min 0 W/m 16,1 km/h (3 Bft) 70,00 %
25.02.2022 01:48 2,3 C 1,7 C -1,1 C 91 % 1017,8 hPa 0,0 l/m 0 min 0 min 0 W/m 22,5 km/h (4 Bft) 100,00 %
25.02.2022 01:50 2,3 C 1,7 C -1,1 C 91 % 1017,8 hPa 0,0 l/m 0 min 0 min 0 W/m 12,9 km/h (3 Bft) 100,00 %
25.02.2022 01:52 2,3 C 1,7 C -1,1 C 91 % 1017,9 hPa 0,0 l/m 0 min 0 min 0 W/m 12,9 km/h (3 Bft) 95,74 %
25.02.2022 01:54 2,3 C 1,7 C -1,1 C 91 % 1017,9 hPa 0,0 l/m 0 min 0 min 0 W/m 16,1 km/h (3 Bft) 97,83 %
25.02.2022 01:56 2,3 C 1,7 C -1,1 C 91 % 1017,9 hPa 0,0 l/m 0 min 0 min 0 W/m 9,7 km/h (2 Bft) 97,87 %
25.02.2022 01:58 2,3 C 1,7 C -1,1 C 91 % 1017,9 hPa 0,0 l/m 0 min 0 min 0 W/m 19,3 km/h (3 Bft) 97,87 %
25.02.2022 02:00 2,3 C 1,7 C -1,1 C 91 % 1018,0 hPa 0,0 l/m 0 min 0 min 0 W/m 22,5 km/h (4 Bft) 95,74 %
25.02.2022 02:02 2,3 C 1,7 C -1,1 C 91 % 1018,0 hPa 0,0 l/m 0 min 0 min 0 W/m 16,1 km/h (3 Bft) 95,74 %
25.02.2022 02:04 2,3 C 1,7 C -1,1 C 91 % 1018,1 hPa 0,0 l/m 0 min 0 min 0 W/m 12,9 km/h (3 Bft) 93,62 %
25.02.2022 02:06 2,3 C 1,7 C -1,1 C 91 % 1018,1 hPa 0,0 l/m 0 min 0 min 0 W/m 12,9 km/h (3 Bft) 95,65 %
25.02.2022 02:08 2,3 C 1,7 C -1,1 C 91 % 1018,2 hPa 0,0 l/m 0 min 0 min 0 W/m 12,9 km/h (3 Bft) 95,74 %
25.02.2022 02:10 2,3 C 1,7 C -1,1 C 91 % 1018,1 hPa 0,0 l/m 0 min 0 min 0 W/m 12,9 km/h (3 Bft) 93,62 %
25.02.2022 02:12 2,3 C 1,7 C -1,1 C 91 % 1018,1 hPa 0,0 l/m 0 min 0 min 0 W/m 12,9 km/h (3 Bft) 95,74 %
25.02.2022 02:14 2,3 C 1,7 C -1,1 C 91 % 1018,1 hPa 0,0 l/m 0 min 0 min 0 W/m 16,1 km/h (3 Bft) 95,74 %
25.02.2022 02:16 2,3 C 1,7 C -1,1 C 91 % 1018,1 hPa 0,0 l/m 0 min 0 min 0 W/m 16,1 km/h (3 Bft) 95,12 %
25.02.2022 02:18 2,3 C 1,7 C -1,1 C 90 % 1018,2 hPa 0,0 l/m 0 min 0 min 0 W/m 12,9 km/h (3 Bft) 94,23 %
25.02.2022 02:20 2,3 C 1,7 C -1,1 C 90 % 1018,2 hPa 0,0 l/m 0 min 0 min 0 W/m 16,1 km/h (3 Bft) 93,62 %
25.02.2022 02:22 2,3 C 1,7 C -1,1 C 90 % 1018,4 hPa 0,0 l/m 0 min 0 min 0 W/m 16,1 km/h (3 Bft) 91,49 %
25.02.2022 02:24 2,3 C 1,7 C -1,1 C 90 % 1018,2 hPa 0,0 l/m 0 min 0 min 0 W/m 12,9 km/h (3 Bft) 93,62 %
25.02.2022 02:26 2,3 C 1,7 C -1,1 C 90 % 1018,2 hPa 0,0 l/m 0 min 0 min 0 W/m 9,7 km/h (2 Bft) 95,74 %
25.02.2022 02:28 2,3 C 1,1 C -1,1 C 90 % 1018,3 hPa 0,0 l/m 0 min 0 min 0 W/m 12,9 km/h (3 Bft) 93,62 %
25.02.2022 02:30 2,2 C 1,1 C -1,1 C 90 % 1018,3 hPa 0,0 l/m 0 min 0 min 0 W/m 9,7 km/h (2 Bft) 95,65 %
25.02.2022 02:32 2,2 C 1,7 C -1,1 C 90 % 1018,3 hPa 0,0 l/m 0 min 0 min 0 W/m 16,1 km/h (3 Bft) 97,56 %
25.02.2022 02:34 2,2 C 1,7 C -1,1 C 90 % 1018,4 hPa 0,0 l/m 0 min 0 min 0 W/m 9,7 km/h (2 Bft) 96,23 %
25.02.2022 02:36 2,2 C 1,7 C -1,1 C 90 % 1018,4 hPa 0,0 l/m 0 min 0 min 0 W/m 25,7 km/h (4 Bft) 95,74 %
25.02.2022 02:38 2,2 C 1,7 C -1,1 C 90 % 1018,4 hPa 0,0 l/m 0 min 0 min 0 W/m 12,9 km/h (3 Bft) 95,74 %
25.02.2022 02:40 2,2 C 1,7 C -1,1 C 90 % 1018,4 hPa 0,0 l/m 0 min 0 min 0 W/m 19,3 km/h (3 Bft) 93,48 %
25.02.2022 02:42 2,2 C 1,7 C -1,1 C 90 % 1018,5 hPa 0,0 l/m 0 min 0 min 0 W/m 9,7 km/h (2 Bft) 95,74 %
25.02.2022 02:44 2,2 C 1,1 C -1,1 C 90 % 1018,5 hPa 0,0 l/m 0 min 0 min 0 W/m 12,9 km/h (3 Bft) 95,74 %
25.02.2022 02:46 2,2 C 1,7 C -1,1 C 90 % 1018,4 hPa 0,0 l/m 0 min 0 min 0 W/m 16,1 km/h (3 Bft) 92,68 %
25.02.2022 02:48 2,2 C 1,7 C -1,1 C 90 % 1018,4 hPa 0,0 l/m 0 min 0 min 0 W/m 12,9 km/h (3 Bft) 96,23 %
25.02.2022 02:50 2,2 C 1,7 C -1,1 C 90 % 1018,4 hPa 0,0 l/m 0 min 0 min 0 W/m 19,3 km/h (3 Bft) 95,74 %
25.02.2022 02:52 2,2 C 1,7 C -1,1 C 90 % 1018,4 hPa 0,0 l/m 0 min 0 min 0 W/m 19,3 km/h (3 Bft) 95,65 %
25.02.2022 02:54 2,2 C 1,7 C -1,1 C 90 % 1018,4 hPa 0,0 l/m 0 min 0 min 0 W/m 9,7 km/h (2 Bft) 95,74 %
25.02.2022 02:56 2,2 C 1,7 C -1,1 C 90 % 1018,4 hPa 0,0 l/m 0 min 0 min 0 W/m 16,1 km/h (3 Bft) 95,74 %
25.02.2022 02:58 2,2 C 1,7 C -1,1 C 90 % 1018,3 hPa 0,0 l/m 0 min 0 min 0 W/m 19,3 km/h (3 Bft) 97,87 %
25.02.2022 03:00 2,2 C 1,7 C -1,1 C 90 % 1018,3 hPa 0,0 l/m 0 min 0 min 0 W/m 16,1 km/h (3 Bft) 95,74 %
25.02.2022 03:02 2,2 C 1,7 C -1,1 C 90 % 1018,4 hPa 0,0 l/m 0 min 0 min 0 W/m 9,7 km/h (2 Bft) 97,56 %
25.02.2022 03:04 2,2 C 1,7 C -1,1 C 90 % 1018,4 hPa 0,0 l/m 0 min 0 min 0 W/m 12,9 km/h (3 Bft) 100,00 %
25.02.2022 03:06 2,2 C 1,7 C -1,1 C 90 % 1018,4 hPa 0,0 l/m 0 min 0 min 0 W/m 12,9 km/h (3 Bft) 97,87 %
25.02.2022 03:08 2,2 C 1,7 C -1,1 C 89 % 1018,3 hPa 0,0 l/m 0 min 0 min 0 W/m 9,7 km/h (2 Bft) 100,00 %
25.02.2022 03:10 2,2 C 1,7 C -1,1 C 89 % 1018,4 hPa 0,0 l/m 0 min 0 min 0 W/m 12,9 km/h (3 Bft) 100,00 %
25.02.2022 03:12 2,2 C 1,7 C -1,1 C 89 % 1018,4 hPa 0,0 l/m 0 min 0 min 0 W/m 12,9 km/h (3 Bft) 100,00 %
25.02.2022 03:14 2,2 C 1,7 C -1,1 C 89 % 1018,4 hPa 0,0 l/m 0 min 0 min 0 W/m 12,9 km/h (3 Bft) 100,00 %
25.02.2022 03:16 2,2 C 1,7 C -1,1 C 89 % 1018,4 hPa 0,0 l/m 0 min 0 min 0 W/m 19,3 km/h (3 Bft) 100,00 %
25.02.2022 03:18 2,2 C 1,7 C -1,1 C 89 % 1018,4 hPa 0,0 l/m 0 min 0 min 0 W/m 12,9 km/h (3 Bft) 98,11 %
25.02.2022 03:20 2,2 C 1,7 C -1,1 C 89 % 1018,4 hPa 0,0 l/m 0 min 0 min 0 W/m 16,1 km/h (3 Bft) 55,56 %
25.02.2022 03:22 2,3 C 1,7 C -1,1 C 89 % 1018,4 hPa 0,0 l/m 0 min 0 min 0 W/m 12,9 km/h (3 Bft) 100,00 %
25.02.2022 03:24 2,2 C 1,7 C -1,1 C 89 % 1018,3 hPa 0,0 l/m 0 min 0 min 0 W/m 12,9 km/h (3 Bft) 100,00 %
25.02.2022 03:26 2,3 C 1,7 C -1,1 C 89 % 1018,4 hPa 0,0 l/m 0 min 0 min 0 W/m 19,3 km/h (3 Bft) 100,00 %
25.02.2022 03:28 2,3 C 1,7 C -1,1 C 88 % 1018,4 hPa 0,0 l/m 0 min 0 min 0 W/m 29,0 km/h (5 Bft) 100,00 %
25.02.2022 03:30 2,3 C 1,7 C -0,6 C 88 % 1018,4 hPa 0,0 l/m 0 min 0 min 0 W/m 19,3 km/h (3 Bft) 97,87 %
25.02.2022 03:32 2,3 C 1,7 C -0,6 C 88 % 1018,4 hPa 0,0 l/m 0 min 0 min 0 W/m 19,3 km/h (3 Bft) 97,56 %
25.02.2022 03:34 2,3 C 1,7 C -0,6 C 88 % 1018,4 hPa 0,0 l/m 0 min 0 min 0 W/m 22,5 km/h (4 Bft) 96,23 %
25.02.2022 03:36 2,4 C 1,7 C -0,6 C 88 % 1018,4 hPa 0,0 l/m 0 min 0 min 0 W/m 19,3 km/h (3 Bft) 97,87 %
25.02.2022 03:38 2,4 C 1,7 C -0,6 C 88 % 1018,4 hPa 0,0 l/m 0 min 0 min 0 W/m 19,3 km/h (3 Bft) 95,65 %
25.02.2022 03:40 2,4 C 1,7 C -0,6 C 87 % 1018,4 hPa 0,0 l/m 0 min 0 min 0 W/m 16,1 km/h (3 Bft) 97,87 %
25.02.2022 03:42 2,4 C 1,7 C -0,6 C 87 % 1018,4 hPa 0,0 l/m 0 min 0 min 0 W/m 19,3 km/h (3 Bft) 97,87 %
25.02.2022 03:44 2,4 C 1,7 C -0,6 C 87 % 1018,4 hPa 0,0 l/m 0 min 0 min 0 W/m 19,3 km/h (3 Bft) 97,87 %
25.02.2022 03:46 2,4 C 1,7 C -0,6 C 87 % 1018,4 hPa 0,0 l/m 0 min 0 min 0 W/m 16,1 km/h (3 Bft) 97,56 %
25.02.2022 03:48 2,4 C 1,7 C -0,6 C 87 % 1018,4 hPa 0,0 l/m 0 min 0 min 0 W/m 16,1 km/h (3 Bft) 98,11 %
25.02.2022 03:50 2,4 C 1,7 C -0,6 C 87 % 1018,4 hPa 0,0 l/m 0 min 0 min 0 W/m 16,1 km/h (3 Bft) 97,83 %
25.02.2022 03:52 2,4 C 1,7 C -0,6 C 86 % 1018,4 hPa 0,0 l/m 0 min 0 min 0 W/m 16,1 km/h (3 Bft) 95,74 %
25.02.2022 03:54 2,4 C 1,7 C -0,6 C 86 % 1018,4 hPa 0,0 l/m 0 min 0 min 0 W/m 16,1 km/h (3 Bft) 97,87 %
25.02.2022 03:56 2,4 C 1,7 C -0,6 C 86 % 1018,4 hPa 0,0 l/m 0 min 0 min 0 W/m 25,7 km/h (4 Bft) 95,74 %
25.02.2022 03:58 2,4 C 1,7 C -0,6 C 86 % 1018,3 hPa 0,0 l/m 0 min 0 min 0 W/m 16,1 km/h (3 Bft) 95,74 %
25.02.2022 04:00 2,4 C 1,7 C -0,6 C 86 % 1018,4 hPa 0,0 l/m 0 min 0 min 0 W/m 12,9 km/h (3 Bft) 97,87 %
25.02.2022 04:02 2,4 C 1,7 C -0,6 C 87 % 1018,5 hPa 0,0 l/m 0 min 0 min 0 W/m 12,9 km/h (3 Bft) 100,00 %
25.02.2022 04:04 2,4 C 1,7 C -1,1 C 86 % 1018,4 hPa 0,0 l/m 0 min 0 min 0 W/m 12,9 km/h (3 Bft) 100,00 %
25.02.2022 04:06 2,4 C 1,7 C -1,1 C 86 % 1018,4 hPa 0,0 l/m 0 min 0 min 0 W/m 12,9 km/h (3 Bft) 97,87 %
25.02.2022 04:08 2,4 C 1,7 C -1,1 C 86 % 1018,4 hPa 0,0 l/m 0 min 0 min 0 W/m 16,1 km/h (3 Bft) 100,00 %
25.02.2022 04:10 2,4 C 1,7 C -1,1 C 87 % 1018,4 hPa 0,0 l/m 0 min 0 min 0 W/m 12,9 km/h (3 Bft) 100,00 %
25.02.2022 04:12 2,3 C 1,7 C -1,1 C 87 % 1018,5 hPa 0,0 l/m 0 min 0 min 0 W/m 16,1 km/h (3 Bft) 100,00 %
25.02.2022 04:14 2,3 C 1,7 C -1,1 C 87 % 1018,6 hPa 0,0 l/m 0 min 0 min 0 W/m 29,0 km/h (5 Bft) 100,00 %
25.02.2022 04:16 2,3 C 1,7 C -1,1 C 87 % 1018,5 hPa 0,0 l/m 0 min 0 min 0 W/m 16,1 km/h (3 Bft) 100,00 %
25.02.2022 04:18 2,3 C 1,7 C -1,1 C 87 % 1018,5 hPa 0,0 l/m 0 min 0 min 0 W/m 12,9 km/h (3 Bft) 97,87 %
25.02.2022 04:20 2,3 C 1,7 C -1,1 C 87 % 1018,5 hPa 0,0 l/m 0 min 0 min 0 W/m 16,1 km/h (3 Bft) 100,00 %
25.02.2022 04:22 2,3 C 1,7 C -1,1 C 87 % 1018,5 hPa 0,0 l/m 0 min 0 min 0 W/m 19,3 km/h (3 Bft) 100,00 %
25.02.2022 04:24 2,3 C 1,7 C -1,1 C 87 % 1018,5 hPa 0,0 l/m 0 min 0 min 0 W/m 9,7 km/h (2 Bft) 100,00 %
25.02.2022 04:26 2,3 C 1,7 C -1,1 C 87 % 1018,6 hPa 0,0 l/m 0 min 0 min 0 W/m 19,3 km/h (3 Bft) 100,00 %
25.02.2022 04:28 2,4 C 1,7 C -1,1 C 87 % 1018,8 hPa 0,0 l/m 0 min 0 min 0 W/m 22,5 km/h (4 Bft) 97,87 %
25.02.2022 04:30 2,4 C 1,7 C -0,6 C 87 % 1018,6 hPa 0,0 l/m 0 min 0 min 0 W/m 19,3 km/h (3 Bft) 97,87 %
25.02.2022 04:32 2,4 C 1,7 C -1,1 C 87 % 1018,6 hPa 0,0 l/m 0 min 0 min 0 W/m 19,3 km/h (3 Bft) 95,74 %
25.02.2022 04:34 2,4 C 1,7 C -1,1 C 86 % 1018,6 hPa 0,0 l/m 0 min 0 min 0 W/m 16,1 km/h (3 Bft) 97,87 %
25.02.2022 04:36 2,4 C 1,7 C -1,1 C 87 % 1018,7 hPa 0,0 l/m 0 min 0 min 0 W/m 16,1 km/h (3 Bft) 97,83 %
25.02.2022 04:38 2,4 C 1,7 C -1,1 C 87 % 1018,5 hPa 0,0 l/m 0 min 0 min 0 W/m 29,0 km/h (5 Bft) 97,87 %
25.02.2022 04:40 2,4 C 1,7 C -1,1 C 87 % 1018,5 hPa 0,0 l/m 0 min 0 min 0 W/m 16,1 km/h (3 Bft) 95,74 %
25.02.2022 04:42 2,4 C 1,7 C -1,1 C 86 % 1018,6 hPa 0,0 l/m 0 min 0 min 0 W/m 9,7 km/h (2 Bft) 95,74 %
25.02.2022 04:44 2,4 C 1,7 C -1,1 C 86 % 1018,6 hPa 0,0 l/m 0 min 0 min 0 W/m 9,7 km/h (2 Bft) 97,87 %
25.02.2022 04:46 2,3 C 1,7 C -1,1 C 86 % 1018,6 hPa 0,0 l/m 0 min 0 min 0 W/m 16,1 km/h (3 Bft) 97,83 %
25.02.2022 04:48 2,3 C 1,7 C -1,1 C 86 % 1018,5 hPa 0,0 l/m 0 min 0 min 0 W/m 19,3 km/h (3 Bft) 97,87 %
25.02.2022 04:50 2,3 C 1,7 C -1,1 C 86 % 1018,6 hPa 0,0 l/m 0 min 0 min 0 W/m 12,9 km/h (3 Bft) 97,87 %
25.02.2022 04:52 2,3 C 1,7 C -1,1 C 86 % 1018,6 hPa 0,0 l/m 0 min 0 min 0 W/m 12,9 km/h (3 Bft) 97,87 %
25.02.2022 04:54 2,3 C 1,7 C -1,1 C 86 % 1018,6 hPa 0,0 l/m 0 min 0 min 0 W/m 16,1 km/h (3 Bft) 97,87 %
25.02.2022 04:56 2,3 C 1,7 C -1,1 C 86 % 1018,6 hPa 0,0 l/m 0 min 0 min 0 W/m 12,9 km/h (3 Bft) 97,87 %
25.02.2022 04:58 2,3 C 1,7 C -1,1 C 86 % 1018,7 hPa 0,0 l/m 0 min 0 min 0 W/m 16,1 km/h (3 Bft) 97,83 %
25.02.2022 05:00 2,3 C 1,7 C -1,1 C 86 % 1018,8 hPa 0,0 l/m 0 min 0 min 0 W/m 19,3 km/h (3 Bft) 97,87 %
25.02.2022 05:02 2,3 C 1,7 C -1,1 C 86 % 1018,8 hPa 0,0 l/m 0 min 0 min 0 W/m 9,7 km/h (2 Bft) 95,74 %
25.02.2022 05:04 2,3 C 1,7 C -1,1 C 87 % 1018,8 hPa 0,0 l/m 0 min 0 min 0 W/m 12,9 km/h (3 Bft) 97,87 %
25.02.2022 05:06 2,3 C 1,7 C -1,1 C 87 % 1018,8 hPa 0,0 l/m 0 min 0 min 0 W/m 16,1 km/h (3 Bft) 97,87 %
25.02.2022 05:08 2,3 C 1,7 C -1,1 C 87 % 1018,7 hPa 0,0 l/m 0 min 0 min 0 W/m 19,3 km/h (3 Bft) 93,62 %
25.02.2022 05:10 2,3 C 1,7 C -1,1 C 86 % 1018,7 hPa 0,0 l/m 0 min 0 min 0 W/m 16,1 km/h (3 Bft) 100,00 %
25.02.2022 05:12 2,3 C 1,7 C -1,1 C 86 % 1018,7 hPa 0,0 l/m 0 min 0 min 0 W/m 22,5 km/h (4 Bft) 100,00 %
25.02.2022 05:14 2,3 C 1,7 C -1,1 C 86 % 1018,7 hPa 0,0 l/m 0 min 0 min 0 W/m 12,9 km/h (3 Bft) 100,00 %
25.02.2022 05:16 2,3 C 1,7 C -1,1 C 86 % 1018,8 hPa 0,0 l/m 0 min 0 min 0 W/m 12,9 km/h (3 Bft) 100,00 %
25.02.2022 05:18 2,3 C 1,7 C -1,1 C 86 % 1018,7 hPa 0,0 l/m 0 min 0 min 0 W/m 19,3 km/h (3 Bft) 97,87 %
25.02.2022 05:20 2,3 C 1,7 C -1,1 C 86 % 1018,7 hPa 0,0 l/m 0 min 0 min 0 W/m 22,5 km/h (4 Bft) 100,00 %
25.02.2022 05:22 2,3 C 1,7 C -1,1 C 86 % 1018,8 hPa 0,0 l/m 0 min 0 min 0 W/m 16,1 km/h (3 Bft) 100,00 %
25.02.2022 05:24 2,3 C 1,7 C -1,1 C 86 % 1018,9 hPa 0,0 l/m 0 min 0 min 0 W/m 19,3 km/h (3 Bft) 95,74 %
25.02.2022 05:26 2,3 C 1,7 C -1,1 C 86 % 1018,8 hPa 0,0 l/m 0 min 0 min 0 W/m 12,9 km/h (3 Bft) 93,62 %
25.02.2022 05:28 2,3 C 1,7 C -1,1 C 86 % 1018,7 hPa 0,0 l/m 0 min 0 min 0 W/m 12,9 km/h (3 Bft) 97,87 %
25.02.2022 05:30 2,3 C 1,7 C -1,1 C 86 % 1018,8 hPa 0,0 l/m 0 min 0 min 0 W/m 22,5 km/h (4 Bft) 95,74 %
25.02.2022 05:32 2,3 C 1,7 C -1,1 C 86 % 1018,8 hPa 0,0 l/m 0 min 0 min 0 W/m 16,1 km/h (3 Bft) 93,62 %
25.02.2022 05:34 2,3 C 1,7 C -1,1 C 86 % 1018,7 hPa 0,0 l/m 0 min 0 min 0 W/m 25,7 km/h (4 Bft) 95,65 %
25.02.2022 05:36 2,3 C 1,7 C -1,1 C 86 % 1018,7 hPa 0,0 l/m 0 min 0 min 0 W/m 16,1 km/h (3 Bft) 95,74 %
25.02.2022 05:38 2,3 C 1,7 C -1,1 C 86 % 1018,7 hPa 0,0 l/m 0 min 0 min 0 W/m 22,5 km/h (4 Bft) 94,00 %
25.02.2022 05:40 2,3 C 1,7 C -1,1 C 86 % 1018,8 hPa 0,0 l/m 0 min 0 min 0 W/m 19,3 km/h (3 Bft) 94,29 %
25.02.2022 05:42 2,3 C 1,7 C -1,1 C 86 % 1018,7 hPa 0,0 l/m 0 min 0 min 0 W/m 16,1 km/h (3 Bft) 96,23 %
25.02.2022 05:44 2,3 C 1,7 C -1,1 C 86 % 1018,6 hPa 0,0 l/m 0 min 0 min 0 W/m 16,1 km/h (3 Bft) 95,74 %
25.02.2022 05:46 2,3 C 1,7 C -1,1 C 86 % 1018,6 hPa 0,0 l/m 0 min 0 min 0 W/m 25,7 km/h (4 Bft) 95,12 %
25.02.2022 05:48 2,3 C 1,7 C -1,1 C 86 % 1018,6 hPa 0,0 l/m 0 min 0 min 0 W/m 19,3 km/h (3 Bft) 96,15 %
25.02.2022 05:50 2,3 C 1,7 C -1,1 C 86 % 1018,7 hPa 0,0 l/m 0 min 0 min 0 W/m 16,1 km/h (3 Bft) 93,62 %
25.02.2022 05:52 2,2 C 1,1 C -1,1 C 86 % 1018,7 hPa 0,0 l/m 0 min 0 min 0 W/m 19,3 km/h (3 Bft) 93,62 %
25.02.2022 05:54 2,2 C 1,1 C -1,1 C 86 % 1018,8 hPa 0,0 l/m 0 min 0 min 0 W/m 12,9 km/h (3 Bft) 95,74 %
25.02.2022 05:56 2,2 C 1,7 C -1,1 C 86 % 1018,8 hPa 0,0 l/m 0 min 0 min 0 W/m 25,7 km/h (4 Bft) 97,87 %
25.02.2022 05:58 2,2 C 1,7 C -1,1 C 86 % 1018,8 hPa 0,0 l/m 0 min 0 min 0 W/m 22,5 km/h (4 Bft) 97,83 %
25.02.2022 06:00 2,2 C 1,7 C -1,1 C 86 % 1018,8 hPa 0,0 l/m 0 min 0 min 0 W/m 19,3 km/h (3 Bft) 97,87 %
25.02.2022 06:02 2,2 C 1,7 C -1,1 C 86 % 1018,7 hPa 0,0 l/m 0 min 0 min 0 W/m 19,3 km/h (3 Bft) 97,92 %
25.02.2022 06:04 2,2 C 1,7 C -1,1 C 86 % 1018,7 hPa 0,0 l/m 0 min 0 min 0 W/m 12,9 km/h (3 Bft) 97,87 %
25.02.2022 06:08 2,2 C 1,7 C -1,1 C 86 % 1018,7 hPa 0,0 l/m 0 min 0 min 0 W/m 29,0 km/h (5 Bft) 96,81 %
25.02.2022 06:10 2,2 C 1,7 C -1,1 C 86 % 1018,7 hPa 0,0 l/m 0 min 0 min 0 W/m 16,1 km/h (3 Bft) 97,87 %
25.02.2022 06:12 2,2 C 1,7 C -1,1 C 86 % 1018,7 hPa 0,0 l/m 0 min 0 min 0 W/m 12,9 km/h (3 Bft) 95,74 %
25.02.2022 06:14 2,2 C 1,7 C -1,1 C 86 % 1018,7 hPa 0,0 l/m 0 min 0 min 0 W/m 19,3 km/h (3 Bft) 95,74 %
25.02.2022 06:16 2,2 C 1,7 C -1,1 C 86 % 1018,8 hPa 0,0 l/m 0 min 0 min 0 W/m 19,3 km/h (3 Bft) 97,87 %
25.02.2022 06:18 2,2 C 1,7 C -1,1 C 86 % 1018,8 hPa 0,0 l/m 0 min 0 min 0 W/m 12,9 km/h (3 Bft) 97,87 %
25.02.2022 06:20 2,2 C 1,7 C -1,1 C 86 % 1018,8 hPa 0,0 l/m 0 min 0 min 0 W/m 19,3 km/h (3 Bft) 100,00 %
25.02.2022 06:22 2,2 C 1,7 C -1,1 C 86 % 1018,7 hPa 0,0 l/m 0 min 0 min 0 W/m 29,0 km/h (5 Bft) 100,00 %
25.02.2022 06:24 2,2 C 1,7 C -1,1 C 86 % 1018,8 hPa 0,0 l/m 0 min 0 min 0 W/m 16,1 km/h (3 Bft) 100,00 %
25.02.2022 06:26 2,3 C 1,7 C -1,1 C 86 % 1018,8 hPa 0,0 l/m 0 min 0 min 0 W/m 22,5 km/h (4 Bft) 100,00 %
25.02.2022 06:28 2,3 C 1,7 C -1,1 C 86 % 1018,6 hPa 0,0 l/m 0 min 0 min 0 W/m 19,3 km/h (3 Bft) 97,87 %
25.02.2022 06:30 2,3 C 1,7 C -1,1 C 86 % 1018,6 hPa 0,0 l/m 0 min 0 min 0 W/m 19,3 km/h (3 Bft) 100,00 %
25.02.2022 06:32 2,3 C 1,7 C -1,1 C 86 % 1018,7 hPa 0,0 l/m 0 min 0 min 0 W/m 25,7 km/h (4 Bft) 100,00 %
25.02.2022 06:34 2,3 C 1,7 C -1,1 C 86 % 1018,7 hPa 0,0 l/m 0 min 0 min 0 W/m 22,5 km/h (4 Bft) 100,00 %
25.02.2022 06:36 2,3 C 1,7 C -1,1 C 86 % 1018,7 hPa 0,0 l/m 0 min 0 min 0 W/m 29,0 km/h (5 Bft) 97,87 %
25.02.2022 06:38 2,4 C 1,7 C -1,1 C 86 % 1018,7 hPa 0,0 l/m 0 min 0 min 0 W/m 22,5 km/h (4 Bft) 100,00 %
25.02.2022 06:40 2,4 C 1,7 C -1,1 C 86 % 1018,7 hPa 0,0 l/m 0 min 0 min 0 W/m 19,3 km/h (3 Bft) 100,00 %
25.02.2022 06:42 2,4 C 1,7 C -1,1 C 86 % 1018,7 hPa 0,0 l/m 0 min 0 min 0 W/m 16,1 km/h (3 Bft) 100,00 %
25.02.2022 06:44 2,4 C 1,7 C -1,1 C 86 % 1018,8 hPa 0,0 l/m 0 min 0 min 0 W/m 16,1 km/h (3 Bft) 100,00 %
25.02.2022 06:46 2,4 C 1,7 C -0,6 C 86 % 1018,8 hPa 0,0 l/m 0 min 0 min 0 W/m 22,5 km/h (4 Bft) 97,87 %
25.02.2022 06:48 2,5 C 1,7 C -0,6 C 86 % 1018,8 hPa 0,0 l/m 0 min 0 min 0 W/m 22,5 km/h (4 Bft) 100,00 %
25.02.2022 06:50 2,5 C 1,7 C -0,6 C 86 % 1018,9 hPa 0,0 l/m 0 min 0 min 0 W/m 16,1 km/h (3 Bft) 97,87 %
25.02.2022 06:52 2,6 C 1,7 C -0,6 C 86 % 1018,9 hPa 0,0 l/m 0 min 0 min 0 W/m 25,7 km/h (4 Bft) 93,62 %
25.02.2022 06:54 2,6 C 1,7 C -0,6 C 86 % 1018,9 hPa 0,0 l/m 0 min 0 min 0 W/m 16,1 km/h (3 Bft) 95,65 %
25.02.2022 06:56 2,6 C 1,7 C -0,6 C 86 % 1018,9 hPa 0,0 l/m 0 min 0 min 0 W/m 19,3 km/h (3 Bft) 97,87 %
25.02.2022 06:58 2,6 C 1,7 C -0,6 C 86 % 1018,9 hPa 0,0 l/m 0 min 0 min 0 W/m 29,0 km/h (5 Bft) 95,74 %
25.02.2022 07:00 2,6 C 1,7 C -0,6 C 86 % 1019,0 hPa 0,0 l/m 0 min 0 min 0 W/m 22,5 km/h (4 Bft) 95,74 %
25.02.2022 07:02 2,6 C 2,2 C -0,6 C 86 % 1019,0 hPa 0,0 l/m 0 min 0 min 0 W/m 25,7 km/h (4 Bft) 94,00 %
25.02.2022 07:04 2,6 C 2,2 C -0,6 C 86 % 1018,9 hPa 0,0 l/m 0 min 0 min 0 W/m 22,5 km/h (4 Bft) 95,65 %
25.02.2022 07:06 2,6 C 1,7 C -0,6 C 86 % 1019,0 hPa 0,0 l/m 0 min 0 min 0 W/m 19,3 km/h (3 Bft) 97,87 %
25.02.2022 07:08 2,6 C 1,7 C -0,6 C 85 % 1019,0 hPa 0,0 l/m 0 min 0 min 0 W/m 19,3 km/h (3 Bft) 97,87 %
25.02.2022 07:10 2,6 C 1,7 C -0,6 C 85 % 1019,0 hPa 0,0 l/m 0 min 0 min 0 W/m 12,9 km/h (3 Bft) 97,37 %
25.02.2022 07:12 2,6 C 1,7 C -0,6 C 86 % 1019,0 hPa 0,0 l/m 0 min 0 min 0 W/m 12,9 km/h (3 Bft) 97,87 %
25.02.2022 07:14 2,6 C 1,7 C -0,6 C 86 % 1019,0 hPa 0,0 l/m 0 min 0 min 0 W/m 22,5 km/h (4 Bft) 97,87 %
25.02.2022 07:16 2,6 C 1,7 C -0,6 C 86 % 1019,0 hPa 0,0 l/m 0 min 0 min 0 W/m 12,9 km/h (3 Bft) 93,62 %
25.02.2022 07:18 2,6 C 2,2 C -0,6 C 86 % 1019,1 hPa 0,0 l/m 0 min 0 min 0 W/m 29,0 km/h (5 Bft) 95,65 %
25.02.2022 07:20 2,6 C 2,2 C -0,6 C 86 % 1019,0 hPa 0,0 l/m 0 min 0 min 0 W/m 22,5 km/h (4 Bft) 95,74 %
25.02.2022 07:22 2,7 C 2,2 C -0,6 C 86 % 1019,1 hPa 0,0 l/m 0 min 0 min 0 W/m 19,3 km/h (3 Bft) 97,87 %
25.02.2022 07:24 2,7 C 2,2 C -0,6 C 85 % 1019,1 hPa 0,0 l/m 0 min 0 min 0 W/m 25,7 km/h (4 Bft) 95,74 %
25.02.2022 07:26 2,7 C 2,2 C -0,6 C 85 % 1019,1 hPa 0,0 l/m 0 min 0 min 0 W/m 29,0 km/h (5 Bft) 95,74 %
25.02.2022 07:28 2,7 C 2,2 C -0,6 C 85 % 1019,1 hPa 0,0 l/m 0 min 0 min 5 W/m 19,3 km/h (3 Bft) 65,96 %
25.02.2022 07:30 2,7 C 2,2 C -0,6 C 85 % 1019,1 hPa 0,0 l/m 0 min 0 min 5 W/m 35,4 km/h (5 Bft) 81,82 %
25.02.2022 07:32 2,7 C 2,2 C -0,6 C 85 % 1019,1 hPa 0,0 l/m 0 min 0 min 6 W/m 38,6 km/h (5 Bft) 96,23 %
25.02.2022 07:34 2,7 C 2,2 C -0,6 C 85 % 1019,2 hPa 0,0 l/m 0 min 0 min 7 W/m 16,1 km/h (3 Bft) 95,74 %
25.02.2022 07:36 2,7 C 2,2 C -0,6 C 85 % 1019,2 hPa 0,0 l/m 0 min 0 min 9 W/m 19,3 km/h (3 Bft) 97,92 %
25.02.2022 07:38 2,8 C 2,2 C -0,6 C 85 % 1019,1 hPa 0,0 l/m 0 min 0 min 9 W/m 16,1 km/h (3 Bft) 98,00 %
25.02.2022 07:40 2,7 C 2,2 C -0,6 C 85 % 1019,2 hPa 0,0 l/m 0 min 0 min 12 W/m 19,3 km/h (3 Bft) 97,30 %
25.02.2022 07:42 2,7 C 2,2 C -0,6 C 85 % 1019,2 hPa 0,0 l/m 0 min 0 min 12 W/m 12,9 km/h (3 Bft) 100,00 %
25.02.2022 07:44 2,7 C 2,2 C -0,6 C 85 % 1019,3 hPa 0,0 l/m 0 min 0 min 12 W/m 25,7 km/h (4 Bft) 100,00 %
25.02.2022 07:46 2,7 C 2,2 C -0,6 C 85 % 1019,2 hPa 0,0 l/m 0 min 0 min 11 W/m 19,3 km/h (3 Bft) 97,87 %
25.02.2022 07:48 2,7 C 2,2 C -0,6 C 85 % 1019,3 hPa 0,0 l/m 0 min 0 min 12 W/m 22,5 km/h (4 Bft) 100,00 %
25.02.2022 07:50 2,7 C 2,2 C -0,6 C 85 % 1019,3 hPa 0,0 l/m 0 min 0 min 14 W/m 22,5 km/h (4 Bft) 100,00 %
25.02.2022 07:52 2,7 C 2,2 C -0,6 C 85 % 1019,3 hPa 0,0 l/m 0 min 0 min 14 W/m 22,5 km/h (4 Bft) 100,00 %
25.02.2022 07:54 2,7 C 2,2 C -0,6 C 85 % 1019,3 hPa 0,0 l/m 0 min 0 min 15 W/m 22,5 km/h (4 Bft) 100,00 %
25.02.2022 07:56 2,7 C 2,2 C -0,6 C 85 % 1019,3 hPa 0,0 l/m 0 min 0 min 17 W/m 25,7 km/h (4 Bft) 100,00 %
25.02.2022 07:58 2,7 C 2,2 C -0,6 C 85 % 1019,3 hPa 0,0 l/m 0 min 0 min 19 W/m 16,1 km/h (3 Bft) 100,00 %
25.02.2022 08:00 2,7 C 2,2 C -0,6 C 86 % 1019,3 hPa 0,0 l/m 0 min 0 min 28 W/m 16,1 km/h (3 Bft) 100,00 %
25.02.2022 08:02 2,7 C 2,2 C -0,6 C 86 % 1019,3 hPa 0,0 l/m 2 min 0 min 38 W/m 25,7 km/h (4 Bft) 97,87 %
25.02.2022 08:04 2,8 C 2,2 C -0,6 C 86 % 1019,3 hPa 0,0 l/m 2 min 0 min 44 W/m 19,3 km/h (3 Bft) 100,00 %
25.02.2022 08:06 2,8 C 2,2 C -0,6 C 86 % 1019,3 hPa 0,0 l/m 2 min 0 min 47 W/m 22,5 km/h (4 Bft) 97,87 %
25.02.2022 08:08 2,8 C 2,2 C -0,6 C 86 % 1019,3 hPa 0,0 l/m 2 min 0 min 51 W/m 16,1 km/h (3 Bft) 100,00 %
25.02.2022 08:10 2,8 C 2,2 C -0,6 C 86 % 1019,3 hPa 0,0 l/m 2 min 0 min 48 W/m 19,3 km/h (3 Bft) 100,00 %
25.02.2022 08:12 2,8 C 2,8 C -0,6 C 86 % 1019,3 hPa 0,0 l/m 0 min 0 min 49 W/m 22,5 km/h (4 Bft) 100,00 %
25.02.2022 08:14 2,9 C 2,8 C 0,0 C 86 % 1019,3 hPa 0,0 l/m 0 min 0 min 52 W/m 25,7 km/h (4 Bft) 97,87 %
25.02.2022 08:16 2,9 C 2,8 C 0,0 C 86 % 1019,4 hPa 0,2 l/m 0 min 0 min 48 W/m 32,2 km/h (5 Bft) 98,08 %
25.02.2022 08:18 3,0 C 2,8 C 0,0 C 86 % 1019,4 hPa 0,0 l/m 0 min 0 min 54 W/m 22,5 km/h (4 Bft) 100,00 %
25.02.2022 08:20 3,0 C 2,8 C 0,0 C 86 % 1019,4 hPa 0,0 l/m 2 min 0 min 64 W/m 25,7 km/h (4 Bft) 100,00 %
25.02.2022 08:22 3,1 C 2,8 C 0,0 C 86 % 1019,4 hPa 0,0 l/m 0 min 0 min 59 W/m 25,7 km/h (4 Bft) 100,00 %
25.02.2022 08:24 3,1 C 2,8 C 0,0 C 86 % 1019,4 hPa 0,0 l/m 0 min 0 min 57 W/m 16,1 km/h (3 Bft) 100,00 %
25.02.2022 08:26 3,1 C 2,8 C 0,0 C 86 % 1019,5 hPa 0,0 l/m 0 min 0 min 46 W/m 22,5 km/h (4 Bft) 100,00 %
25.02.2022 08:28 3,1 C 2,8 C 0,0 C 86 % 1019,3 hPa 0,0 l/m 0 min 0 min 38 W/m 32,2 km/h (5 Bft) 97,92 %
25.02.2022 08:30 3,1 C 2,8 C 0,0 C 85 % 1019,4 hPa 0,0 l/m 0 min 0 min 24 W/m 19,3 km/h (3 Bft) 97,92 %
25.02.2022 08:32 3,2 C 2,8 C 0,0 C 86 % 1019,4 hPa 0,0 l/m 0 min 2 min 15 W/m 19,3 km/h (3 Bft) 97,92 %
25.02.2022 08:34 3,2 C 2,8 C 0,0 C 86 % 1019,5 hPa 0,0 l/m 0 min 2 min 12 W/m 12,9 km/h (3 Bft) 97,87 %
25.02.2022 08:36 3,2 C 2,8 C -0,6 C 86 % 1019,5 hPa 0,0 l/m 0 min 2 min 19 W/m 22,5 km/h (4 Bft) 97,83 %
25.02.2022 08:38 3,2 C 2,8 C -0,6 C 86 % 1019,4 hPa 0,0 l/m 0 min 2 min 33 W/m 38,6 km/h (5 Bft) 97,87 %
25.02.2022 08:40 3,2 C 2,8 C -0,6 C 86 % 1019,5 hPa 0,0 l/m 0 min 2 min 46 W/m 12,9 km/h (3 Bft) 97,87 %
25.02.2022 08:42 3,2 C 2,8 C -0,6 C 87 % 1019,5 hPa 0,0 l/m 0 min 2 min 45 W/m 22,5 km/h (4 Bft) 97,87 %
25.02.2022 08:43 3,2 C 2,8 C -0,6 C 87 % 1019,6 hPa 0,0 l/m 0 min 1 min 31 W/m 16,1 km/h (3 Bft) 95,74 %
25.02.2022 08:46 3,2 C 2,8 C -0,6 C 87 % 1019,6 hPa 0,0 l/m 0 min 0 min 25 W/m 19,3 km/h (3 Bft) 97,87 %
25.02.2022 08:48 3,3 C 2,8 C -0,6 C 87 % 1019,6 hPa 0,0 l/m 0 min 2 min 25 W/m 22,5 km/h (4 Bft) 97,83 %
25.02.2022 08:50 3,3 C 2,8 C -0,6 C 88 % 1019,6 hPa 0,0 l/m 0 min 2 min 30 W/m 16,1 km/h (3 Bft) 97,87 %
25.02.2022 08:52 3,3 C 2,8 C -0,6 C 88 % 1019,6 hPa 0,0 l/m 0 min 2 min 36 W/m 19,3 km/h (3 Bft) 95,74 %
25.02.2022 08:54 3,3 C 2,8 C -0,6 C 88 % 1019,7 hPa 0,0 l/m 0 min 2 min 47 W/m 12,9 km/h (3 Bft) 97,87 %
25.02.2022 08:56 3,3 C 2,8 C -0,6 C 88 % 1019,6 hPa 0,0 l/m 0 min 2 min 63 W/m 19,3 km/h (3 Bft) 94,59 %
25.02.2022 08:58 3,3 C 2,8 C 0,0 C 88 % 1019,6 hPa 0,0 l/m 0 min 2 min 67 W/m 22,5 km/h (4 Bft) 98,04 %
25.02.2022 09:00 3,3 C 3,3 C 0,0 C 88 % 1019,6 hPa 0,0 l/m 0 min 2 min 77 W/m 25,7 km/h (4 Bft) 95,74 %
25.02.2022 09:02 3,3 C 3,3 C 0,0 C 88 % 1019,6 hPa 0,0 l/m 0 min 2 min 86 W/m 19,3 km/h (3 Bft) 96,00 %
25.02.2022 09:04 3,4 C 3,3 C 0,0 C 88 % 1019,6 hPa 0,0 l/m 0 min 2 min 107 W/m 32,2 km/h (5 Bft) 95,74 %
25.02.2022 09:06 3,4 C 3,3 C 0,0 C 88 % 1019,7 hPa 0,0 l/m 0 min 0 min 107 W/m 19,3 km/h (3 Bft) 97,96 %
25.02.2022 09:08 3,4 C 3,3 C 0,6 C 88 % 1019,7 hPa 0,0 l/m 0 min 0 min 69 W/m 22,5 km/h (4 Bft) 97,14 %
25.02.2022 09:10 3,5 C 3,3 C 0,6 C 88 % 1019,8 hPa 0,0 l/m 0 min 0 min 64 W/m 25,7 km/h (4 Bft) 97,87 %
25.02.2022 09:12 3,5 C 3,3 C 0,0 C 88 % 1019,8 hPa 0,0 l/m 0 min 2 min 44 W/m 29,0 km/h (5 Bft) 97,87 %
25.02.2022 09:14 3,6 C 3,3 C 0,0 C 88 % 1019,8 hPa 0,0 l/m 0 min 2 min 25 W/m 25,7 km/h (4 Bft) 97,83 %
25.02.2022 09:16 3,6 C 3,3 C 0,0 C 88 % 1019,8 hPa 0,0 l/m 0 min 2 min 26 W/m 16,1 km/h (3 Bft) 94,44 %
25.02.2022 09:18 3,6 C 2,8 C -0,6 C 88 % 1019,9 hPa 0,0 l/m 0 min 2 min 28 W/m 19,3 km/h (3 Bft) 98,00 %
25.02.2022 09:20 3,6 C 2,8 C -0,6 C 88 % 1019,9 hPa 0,0 l/m 0 min 2 min 43 W/m 25,7 km/h (4 Bft) 95,92 %
25.02.2022 09:22 3,6 C 2,8 C -0,6 C 88 % 1019,9 hPa 0,0 l/m 0 min 0 min 57 W/m 16,1 km/h (3 Bft) 94,29 %
25.02.2022 09:24 3,6 C 2,8 C -0,6 C 89 % 1020,0 hPa 0,0 l/m 0 min 0 min 49 W/m 29,0 km/h (5 Bft) 96,23 %
25.02.2022 09:26 3,6 C 3,3 C -0,6 C 89 % 1020,0 hPa 0,0 l/m 0 min 0 min 45 W/m 16,1 km/h (3 Bft) 96,00 %
25.02.2022 09:28 3,6 C 3,3 C 0,0 C 89 % 1020,0 hPa 0,0 l/m 0 min 0 min 49 W/m 19,3 km/h (3 Bft) 95,74 %
25.02.2022 09:30 3,6 C 3,3 C 0,0 C 89 % 1020,0 hPa 0,0 l/m 0 min 0 min 56 W/m 16,1 km/h (3 Bft) 95,92 %
25.02.2022 09:32 3,6 C 3,3 C 0,0 C 89 % 1020,1 hPa 0,0 l/m 0 min 0 min 48 W/m 25,7 km/h (4 Bft) 94,29 %
25.02.2022 09:34 3,7 C 3,3 C 0,0 C 89 % 1020,1 hPa 0,0 l/m 0 min 2 min 36 W/m 22,5 km/h (4 Bft) 95,74 %
25.02.2022 09:36 3,7 C 2,8 C 0,0 C 89 % 1020,2 hPa 0,0 l/m 0 min 2 min 29 W/m 12,9 km/h (3 Bft) 94,34 %
25.02.2022 09:38 3,6 C 2,8 C -0,6 C 89 % 1020,3 hPa 0,0 l/m 0 min 2 min 37 W/m 25,7 km/h (4 Bft) 94,00 %
25.02.2022 09:40 3,6 C 2,8 C -0,6 C 89 % 1020,2 hPa 0,0 l/m 0 min 2 min 59 W/m 38,6 km/h (5 Bft) 93,62 %
25.02.2022 09:42 3,6 C 3,3 C 0,0 C 89 % 1020,3 hPa 0,0 l/m 0 min 0 min 76 W/m 19,3 km/h (3 Bft) 95,74 %
25.02.2022 09:44 3,6 C 3,3 C 0,0 C 89 % 1020,3 hPa 0,0 l/m 0 min 0 min 69 W/m 19,3 km/h (3 Bft) 95,92 %
25.02.2022 09:46 3,6 C 3,3 C 0,0 C 89 % 1020,4 hPa 0,0 l/m 0 min 0 min 35 W/m 32,2 km/h (5 Bft) 97,83 %
25.02.2022 09:48 3,7 C 3,3 C 0,0 C 89 % 1020,4 hPa 0,0 l/m 0 min 0 min 36 W/m 12,9 km/h (3 Bft) 97,87 %
25.02.2022 09:50 3,7 C 3,3 C 0,0 C 89 % 1020,5 hPa 0,0 l/m 0 min 0 min 56 W/m 22,5 km/h (4 Bft) 97,14 %
25.02.2022 09:52 3,7 C 3,3 C 0,0 C 90 % 1020,5 hPa 0,0 l/m 0 min 0 min 73 W/m 29,0 km/h (5 Bft) 98,15 %
25.02.2022 09:55 3,7 C 3,3 C 0,0 C 89 % 1020,5 hPa 0,0 l/m 0 min 0 min 51 W/m 19,3 km/h (3 Bft) 97,26 %
25.02.2022 09:56 3,7 C 3,3 C 0,0 C 89 % 1020,5 hPa 0,0 l/m 0 min 0 min 58 W/m 19,3 km/h (3 Bft) 100,00 %
25.02.2022 09:58 3,8 C 3,3 C 0,0 C 89 % 1020,5 hPa 0,0 l/m 0 min 0 min 65 W/m 32,2 km/h (5 Bft) 97,83 %
25.02.2022 10:00 3,8 C 3,3 C 0,0 C 89 % 1020,5 hPa 0,0 l/m 0 min 0 min 67 W/m 22,5 km/h (4 Bft) 97,87 %
25.02.2022 10:02 3,8 C 3,3 C 0,0 C 89 % 1020,5 hPa 0,0 l/m 0 min 0 min 51 W/m 25,7 km/h (4 Bft) 97,67 %
25.02.2022 10:04 3,8 C 3,3 C 0,0 C 89 % 1020,5 hPa 0,0 l/m 0 min 0 min 61 W/m 22,5 km/h (4 Bft) 100,00 %
25.02.2022 10:06 3,9 C 3,9 C 0,0 C 89 % 1020,5 hPa 0,0 l/m 0 min 0 min 81 W/m 22,5 km/h (4 Bft) 100,00 %
25.02.2022 10:08 3,9 C 3,9 C 0,6 C 89 % 1020,5 hPa 0,0 l/m 0 min 0 min 86 W/m 29,0 km/h (5 Bft) 100,00 %
25.02.2022 10:10 3,9 C 3,9 C 0,6 C 89 % 1020,5 hPa 0,0 l/m 0 min 0 min 61 W/m 22,5 km/h (4 Bft) 100,00 %
25.02.2022 10:12 4,0 C 3,9 C 0,6 C 89 % 1020,6 hPa 0,0 l/m 0 min 0 min 72 W/m 22,5 km/h (4 Bft) 95,74 %
25.02.2022 10:14 4,0 C 3,9 C 0,6 C 89 % 1020,5 hPa 0,0 l/m 0 min 0 min 73 W/m 19,3 km/h (3 Bft) 95,74 %
25.02.2022 10:16 4,1 C 3,9 C 0,6 C 89 % 1020,6 hPa 0,0 l/m 0 min 0 min 95 W/m 25,7 km/h (4 Bft) 100,00 %
25.02.2022 10:18 4,1 C 3,9 C 0,6 C 89 % 1020,7 hPa 0,0 l/m 0 min 0 min 100 W/m 19,3 km/h (3 Bft) 97,87 %
25.02.2022 10:20 4,1 C 3,9 C 1,1 C 89 % 1020,8 hPa 0,0 l/m 0 min 0 min 142 W/m 16,1 km/h (3 Bft) 97,87 %
25.02.2022 10:22 4,2 C 4,4 C 1,1 C 89 % 1020,7 hPa 0,0 l/m 0 min 0 min 114 W/m 16,1 km/h (3 Bft) 100,00 %
25.02.2022 10:24 4,2 C 4,4 C 1,1 C 89 % 1020,8 hPa 0,0 l/m 0 min 0 min 94 W/m 16,1 km/h (3 Bft) 100,00 %
25.02.2022 10:26 4,3 C 4,4 C 1,1 C 89 % 1020,8 hPa 0,0 l/m 0 min 0 min 97 W/m 12,9 km/h (3 Bft) 100,00 %
25.02.2022 10:28 4,3 C 3,9 C 1,1 C 89 % 1020,8 hPa 0,0 l/m 0 min 0 min 61 W/m 22,5 km/h (4 Bft) 97,87 %
25.02.2022 10:30 4,3 C 3,9 C 1,1 C 89 % 1020,8 hPa 0,0 l/m 0 min 0 min 81 W/m 22,5 km/h (4 Bft) 100,00 %
25.02.2022 10:32 4,3 C 4,4 C 1,1 C 88 % 1020,8 hPa 0,0 l/m 0 min 0 min 105 W/m 16,1 km/h (3 Bft) 100,00 %
25.02.2022 10:34 4,4 C 4,4 C 1,1 C 88 % 1020,9 hPa 0,0 l/m 0 min 0 min 113 W/m 16,1 km/h (3 Bft) 100,00 %
25.02.2022 10:36 4,4 C 4,4 C 1,1 C 88 % 1020,8 hPa 0,0 l/m 0 min 0 min 131 W/m 12,9 km/h (3 Bft) 100,00 %
25.02.2022 10:38 4,4 C 4,4 C 1,7 C 88 % 1020,9 hPa 0,0 l/m 0 min 0 min 130 W/m 19,3 km/h (3 Bft) 100,00 %
25.02.2022 10:40 4,5 C 4,4 C 1,7 C 88 % 1020,9 hPa 0,0 l/m 0 min 0 min 106 W/m 16,1 km/h (3 Bft) 97,87 %
25.02.2022 10:42 4,5 C 4,4 C 1,7 C 88 % 1021,0 hPa 0,0 l/m 0 min 0 min 103 W/m 35,4 km/h (5 Bft) 100,00 %
25.02.2022 10:44 4,6 C 4,4 C 1,7 C 88 % 1021,0 hPa 0,0 l/m 0 min 0 min 95 W/m 19,3 km/h (3 Bft) 100,00 %
25.02.2022 10:46 4,6 C 4,4 C 1,7 C 88 % 1021,1 hPa 0,0 l/m 0 min 0 min 99 W/m 22,5 km/h (4 Bft) 97,87 %
25.02.2022 10:48 4,6 C 4,4 C 1,7 C 88 % 1021,1 hPa 0,0 l/m 0 min 0 min 150 W/m 16,1 km/h (3 Bft) 100,00 %
25.02.2022 10:50 4,6 C 5,0 C 1,7 C 88 % 1021,1 hPa 0,0 l/m 0 min 0 min 194 W/m 22,5 km/h (4 Bft) 100,00 %
25.02.2022 10:52 4,7 C 5,6 C 1,7 C 88 % 1021,1 hPa 0,0 l/m 2 min 0 min 212 W/m 19,3 km/h (3 Bft) 100,00 %
25.02.2022 10:54 4,8 C 5,6 C 2,2 C 88 % 1021,2 hPa 0,0 l/m 0 min 0 min 198 W/m 19,3 km/h (3 Bft) 100,00 %
25.02.2022 10:56 4,8 C 6,1 C 2,2 C 88 % 1021,1 hPa 0,0 l/m 2 min 0 min 236 W/m 19,3 km/h (3 Bft) 100,00 %
25.02.2022 10:58 4,9 C 5,6 C 2,2 C 88 % 1021,2 hPa 0,0 l/m 0 min 0 min 192 W/m 32,2 km/h (5 Bft) 100,00 %
25.02.2022 11:00 4,9 C 5,6 C 2,2 C 88 % 1021,2 hPa 0,0 l/m 0 min 0 min 184 W/m 19,3 km/h (3 Bft) 100,00 %
25.02.2022 11:02 5,0 C 6,1 C 2,2 C 87 % 1021,2 hPa 0,0 l/m 2 min 0 min 265 W/m 16,1 km/h (3 Bft) 100,00 %
25.02.2022 11:04 5,1 C 7,2 C 2,8 C 88 % 1021,3 hPa 0,0 l/m 2 min 0 min 377 W/m 12,9 km/h (3 Bft) 100,00 %
25.02.2022 11:06 5,2 C 7,2 C 2,8 C 88 % 1021,4 hPa 0,0 l/m 2 min 0 min 304 W/m 19,3 km/h (3 Bft) 97,87 %
25.02.2022 11:08 5,4 C 7,2 C 3,3 C 88 % 1021,3 hPa 0,0 l/m 2 min 0 min 274 W/m 12,9 km/h (3 Bft) 100,00 %
25.02.2022 11:10 5,4 C 8,3 C 3,9 C 88 % 1021,3 hPa 0,0 l/m 2 min 0 min 352 W/m 29,0 km/h (5 Bft) 97,87 %
25.02.2022 11:12 5,6 C 7,8 C 3,9 C 87 % 1021,4 hPa 0,0 l/m 2 min 0 min 248 W/m 16,1 km/h (3 Bft) 100,00 %
25.02.2022 11:14 5,6 C 7,2 C 3,3 C 87 % 1021,4 hPa 0,0 l/m 0 min 0 min 189 W/m 19,3 km/h (3 Bft) 97,87 %
25.02.2022 11:16 5,6 C 6,7 C 3,3 C 87 % 1021,5 hPa 0,0 l/m 0 min 0 min 192 W/m 12,9 km/h (3 Bft) 96,43 %
25.02.2022 11:18 5,6 C 6,1 C 3,3 C 87 % 1021,5 hPa 0,0 l/m 0 min 0 min 172 W/m 19,3 km/h (3 Bft) 98,00 %
25.02.2022 11:20 5,6 C 6,7 C 3,3 C 86 % 1021,5 hPa 0,0 l/m 0 min 0 min 217 W/m 19,3 km/h (3 Bft) 97,83 %
25.02.2022 11:22 5,7 C 8,3 C 4,4 C 87 % 1021,5 hPa 0,0 l/m 2 min 0 min 376 W/m 19,3 km/h (3 Bft) 97,87 %
25.02.2022 11:24 5,8 C 7,8 C 3,9 C 87 % 1021,6 hPa 0,0 l/m 2 min 0 min 408 W/m 16,1 km/h (3 Bft) 94,29 %
25.02.2022 11:26 5,8 C 6,7 C 3,3 C 86 % 1021,6 hPa 0,0 l/m 0 min 0 min 118 W/m 22,5 km/h (4 Bft) 96,43 %
25.02.2022 11:28 5,8 C 6,1 C 3,3 C 86 % 1021,6 hPa 0,0 l/m 0 min 0 min 126 W/m 12,9 km/h (3 Bft) 95,74 %
25.02.2022 11:30 5,7 C 6,1 C 2,8 C 85 % 1021,6 hPa 0,0 l/m 0 min 0 min 130 W/m 22,5 km/h (4 Bft) 95,83 %
25.02.2022 11:32 5,7 C 5,6 C 2,8 C 86 % 1021,7 hPa 0,0 l/m 0 min 0 min 149 W/m 19,3 km/h (3 Bft) 95,65 %
25.02.2022 11:34 5,7 C 6,1 C 3,3 C 86 % 1021,6 hPa 0,0 l/m 0 min 0 min 225 W/m 12,9 km/h (3 Bft) 95,74 %
25.02.2022 11:36 5,8 C 6,7 C 3,3 C 86 % 1021,6 hPa 0,0 l/m 0 min 0 min 232 W/m 9,7 km/h (2 Bft) 93,88 %
25.02.2022 11:38 5,8 C 6,7 C 3,3 C 86 % 1021,6 hPa 0,0 l/m 2 min 0 min 240 W/m 19,3 km/h (3 Bft) 95,74 %
25.02.2022 11:40 5,9 C 7,2 C 3,3 C 86 % 1021,6 hPa 0,0 l/m 2 min 0 min 235 W/m 19,3 km/h (3 Bft) 95,74 %
25.02.2022 11:42 6,0 C 7,2 C 3,3 C 86 % 1021,7 hPa 0,0 l/m 2 min 0 min 271 W/m 16,1 km/h (3 Bft) 95,65 %
25.02.2022 11:44 6,1 C 7,2 C 3,3 C 86 % 1021,8 hPa 0,0 l/m 2 min 0 min 294 W/m 22,5 km/h (4 Bft) 95,74 %
25.02.2022 11:46 6,2 C 8,3 C 3,9 C 86 % 1021,8 hPa 0,0 l/m 2 min 0 min 388 W/m 16,1 km/h (3 Bft) 95,74 %
25.02.2022 11:48 6,3 C 8,3 C 4,4 C 86 % 1021,7 hPa 0,0 l/m 2 min 0 min 478 W/m 25,7 km/h (4 Bft) 97,87 %
25.02.2022 11:50 6,4 C 7,8 C 3,9 C 85 % 1021,7 hPa 0,0 l/m 2 min 0 min 243 W/m 22,5 km/h (4 Bft) 97,87 %
25.02.2022 11:52 6,5 C 7,8 C 3,9 C 85 % 1021,8 hPa 0,0 l/m 2 min 0 min 241 W/m 16,1 km/h (3 Bft) 93,62 %
25.02.2022 11:54 6,5 C 7,2 C 3,9 C 84 % 1021,7 hPa 0,0 l/m 0 min 0 min 174 W/m 16,1 km/h (3 Bft) 97,83 %
25.02.2022 11:56 6,5 C 6,7 C 3,9 C 84 % 1021,7 hPa 0,0 l/m 0 min 0 min 116 W/m 16,1 km/h (3 Bft) 95,74 %
25.02.2022 11:58 6,4 C 6,1 C 3,9 C 84 % 1021,7 hPa 0,0 l/m 0 min 0 min 75 W/m 22,5 km/h (4 Bft) 95,74 %
25.02.2022 12:00 6,4 C 6,1 C 3,9 C 83 % 1021,7 hPa 0,0 l/m 0 min 0 min 55 W/m 19,3 km/h (3 Bft) 97,87 %
25.02.2022 12:02 6,3 C 6,1 C 3,9 C 83 % 1021,7 hPa 0,0 l/m 0 min 0 min 57 W/m 19,3 km/h (3 Bft) 100,00 %
25.02.2022 12:04 6,3 C 6,1 C 3,9 C 83 % 1021,6 hPa 0,0 l/m 0 min 0 min 88 W/m 19,3 km/h (3 Bft) 97,87 %
25.02.2022 12:08 6,3 C 6,1 C 3,3 C 83 % 1021,6 hPa 0,0 l/m 0 min 0 min 171 W/m 25,7 km/h (4 Bft) 97,85 %
25.02.2022 12:10 6,3 C 7,2 C 3,3 C 83 % 1021,7 hPa 0,0 l/m 2 min 0 min 253 W/m 25,7 km/h (4 Bft) 100,00 %
25.02.2022 12:12 6,5 C 7,8 C 3,9 C 83 % 1021,6 hPa 0,0 l/m 0 min 0 min 220 W/m 16,1 km/h (3 Bft) 100,00 %
25.02.2022 12:14 6,6 C 7,8 C 3,9 C 83 % 1021,6 hPa 0,0 l/m 0 min 0 min 166 W/m 22,5 km/h (4 Bft) 100,00 %
25.02.2022 12:16 6,6 C 7,2 C 3,9 C 83 % 1021,7 hPa 0,0 l/m 0 min 0 min 148 W/m 19,3 km/h (3 Bft) 95,74 %
25.02.2022 12:18 6,6 C 7,2 C 3,9 C 83 % 1021,7 hPa 0,0 l/m 0 min 0 min 202 W/m 19,3 km/h (3 Bft) 97,83 %
25.02.2022 12:20 6,7 C 7,8 C 3,9 C 83 % 1021,8 hPa 0,0 l/m 2 min 0 min 277 W/m 25,7 km/h (4 Bft) 100,00 %
25.02.2022 12:22 6,8 C 7,8 C 4,4 C 83 % 1021,8 hPa 0,0 l/m 2 min 0 min 291 W/m 19,3 km/h (3 Bft) 100,00 %
25.02.2022 12:24 6,8 C 7,8 C 4,4 C 83 % 1021,9 hPa 0,0 l/m 2 min 0 min 265 W/m 22,5 km/h (4 Bft) 97,87 %
25.02.2022 12:26 6,9 C 7,2 C 3,9 C 83 % 1021,9 hPa 0,0 l/m 0 min 0 min 193 W/m 22,5 km/h (4 Bft) 95,74 %
25.02.2022 12:28 6,9 C 7,2 C 3,9 C 82 % 1022,0 hPa 0,0 l/m 0 min 0 min 187 W/m 22,5 km/h (4 Bft) 97,87 %
25.02.2022 12:30 6,9 C 7,2 C 3,9 C 83 % 1022,0 hPa 0,0 l/m 0 min 0 min 204 W/m 16,1 km/h (3 Bft) 97,83 %
25.02.2022 12:32 6,9 C 7,2 C 3,9 C 83 % 1022,1 hPa 0,0 l/m 0 min 0 min 224 W/m 16,1 km/h (3 Bft) 97,87 %
25.02.2022 12:34 6,9 C 7,2 C 3,9 C 82 % 1022,0 hPa 0,2 l/m 2 min 0 min 270 W/m 22,5 km/h (4 Bft) 97,87 %
25.02.2022 12:36 6,9 C 7,8 C 3,9 C 82 % 1022,0 hPa 0,0 l/m 2 min 0 min 299 W/m 19,3 km/h (3 Bft) 97,87 %
25.02.2022 12:38 7,0 C 7,8 C 3,9 C 82 % 1022,0 hPa 0,0 l/m 2 min 0 min 253 W/m 19,3 km/h (3 Bft) 95,74 %
25.02.2022 12:40 7,1 C 7,8 C 3,9 C 82 % 1022,0 hPa 0,0 l/m 2 min 0 min 272 W/m 19,3 km/h (3 Bft) 97,83 %
25.02.2022 12:42 7,1 C 7,8 C 4,4 C 82 % 1021,9 hPa 0,0 l/m 2 min 0 min 271 W/m 16,1 km/h (3 Bft) 95,74 %
25.02.2022 12:44 7,1 C 7,8 C 4,4 C 82 % 1022,0 hPa 0,0 l/m 2 min 0 min 270 W/m 29,0 km/h (5 Bft) 97,87 %
25.02.2022 12:46 7,1 C 7,2 C 4,4 C 82 % 1022,0 hPa 0,0 l/m 0 min 0 min 208 W/m 19,3 km/h (3 Bft) 97,87 %
25.02.2022 12:48 7,1 C 7,2 C 3,9 C 82 % 1022,0 hPa 0,0 l/m 0 min 0 min 169 W/m 16,1 km/h (3 Bft) 97,87 %
25.02.2022 12:50 7,1 C 7,8 C 3,9 C 82 % 1022,0 hPa 0,0 l/m 0 min 0 min 186 W/m 12,9 km/h (3 Bft) 97,87 %
25.02.2022 12:52 7,1 C 7,8 C 3,9 C 81 % 1021,9 hPa 0,0 l/m 0 min 0 min 201 W/m 25,7 km/h (4 Bft) 97,83 %
25.02.2022 12:54 7,1 C 7,2 C 3,9 C 81 % 1021,9 hPa 0,0 l/m 0 min 0 min 138 W/m 19,3 km/h (3 Bft) 97,87 %
25.02.2022 12:56 7,1 C 7,8 C 3,9 C 82 % 1021,9 hPa 0,0 l/m 0 min 2 min 127 W/m 22,5 km/h (4 Bft) 95,74 %
25.02.2022 12:58 7,1 C 8,3 C 3,9 C 82 % 1021,9 hPa 0,0 l/m 0 min 2 min 181 W/m 19,3 km/h (3 Bft) 97,87 %
25.02.2022 13:00 7,1 C 7,8 C 3,9 C 82 % 1022,0 hPa 0,0 l/m 0 min 0 min 247 W/m 19,3 km/h (3 Bft) 95,74 %
25.02.2022 13:02 7,1 C 7,2 C 3,9 C 83 % 1022,0 hPa 0,0 l/m 0 min 0 min 122 W/m 19,3 km/h (3 Bft) 95,74 %
25.02.2022 13:04 7,1 C 6,7 C 3,3 C 82 % 1022,0 hPa 0,0 l/m 0 min 2 min 52 W/m 19,3 km/h (3 Bft) 97,83 %
25.02.2022 13:06 7,0 C 6,7 C 3,3 C 82 % 1022,1 hPa 0,0 l/m 0 min 2 min 31 W/m 29,0 km/h (5 Bft) 93,62 %
25.02.2022 13:08 6,9 C 6,1 C 2,8 C 83 % 1022,1 hPa 0,0 l/m 0 min 2 min 23 W/m 16,1 km/h (3 Bft) 97,87 %
25.02.2022 13:10 6,8 C 5,6 C 2,2 C 84 % 1022,1 hPa 0,0 l/m 0 min 2 min 20 W/m 12,9 km/h (3 Bft) 97,87 %
25.02.2022 13:12 6,7 C 5,6 C 2,2 C 84 % 1022,1 hPa 0,0 l/m 0 min 2 min 35 W/m 12,9 km/h (3 Bft) 95,74 %
25.02.2022 13:14 6,6 C 5,6 C 2,2 C 84 % 1022,2 hPa 0,0 l/m 0 min 2 min 52 W/m 6,4 km/h (2 Bft) 97,87 %
25.02.2022 13:16 6,5 C 5,6 C 1,7 C 85 % 1022,2 hPa 0,0 l/m 0 min 2 min 46 W/m 16,1 km/h (3 Bft) 95,65 %
25.02.2022 13:18 6,3 C 5,6 C 1,7 C 86 % 1022,3 hPa 0,0 l/m 0 min 2 min 29 W/m 16,1 km/h (3 Bft) 95,74 %
25.02.2022 13:20 6,3 C 5,6 C 1,7 C 86 % 1022,4 hPa 0,0 l/m 0 min 2 min 23 W/m 12,9 km/h (3 Bft) 97,87 %
25.02.2022 13:22 6,2 C 5,6 C 1,7 C 86 % 1022,4 hPa 0,0 l/m 0 min 2 min 26 W/m 12,9 km/h (3 Bft) 97,87 %
25.02.2022 13:24 6,2 C 5,0 C 1,7 C 87 % 1022,6 hPa 0,0 l/m 0 min 2 min 24 W/m 12,9 km/h (3 Bft) 95,65 %
25.02.2022 13:26 6,0 C 4,4 C 1,1 C 87 % 1022,6 hPa 0,4 l/m 0 min 2 min 18 W/m 25,7 km/h (4 Bft) 97,87 %
25.02.2022 13:28 5,8 C 4,4 C 0,6 C 86 % 1022,7 hPa 0,2 l/m 0 min 2 min 34 W/m 25,7 km/h (4 Bft) 97,83 %
25.02.2022 13:30 5,5 C 3,9 C 0,6 C 86 % 1022,6 hPa 0,0 l/m 0 min 2 min 62 W/m 19,3 km/h (3 Bft) 97,87 %
25.02.2022 13:32 5,3 C 3,9 C 0,6 C 86 % 1022,7 hPa 0,0 l/m 0 min 0 min 65 W/m 19,3 km/h (3 Bft) 97,87 %
25.02.2022 13:34 5,2 C 3,9 C 0,6 C 87 % 1022,7 hPa 0,2 l/m 0 min 0 min 63 W/m 16,1 km/h (3 Bft) 100,00 %
25.02.2022 13:36 5,0 C 3,9 C 0,6 C 87 % 1022,7 hPa 0,0 l/m 0 min 0 min 63 W/m 6,4 km/h (2 Bft) 97,87 %
25.02.2022 13:38 4,9 C 3,9 C 0,6 C 88 % 1022,7 hPa 0,0 l/m 0 min 0 min 62 W/m 12,9 km/h (3 Bft) 95,74 %
25.02.2022 13:40 4,8 C 3,9 C 0,6 C 89 % 1022,8 hPa 0,0 l/m 0 min 0 min 62 W/m 12,9 km/h (3 Bft) 97,83 %
25.02.2022 13:42 4,8 C 3,9 C 0,6 C 89 % 1022,7 hPa 0,0 l/m 0 min 0 min 64 W/m 6,4 km/h (2 Bft) 100,00 %
25.02.2022 13:44 4,8 C 3,9 C 0,6 C 90 % 1022,8 hPa 0,0 l/m 0 min 0 min 61 W/m 16,1 km/h (3 Bft) 97,87 %
25.02.2022 13:46 4,8 C 4,4 C 1,1 C 90 % 1022,6 hPa 0,0 l/m 0 min 2 min 78 W/m 16,1 km/h (3 Bft) 97,87 %
25.02.2022 13:48 4,8 C 4,4 C 1,1 C 90 % 1022,5 hPa 0,0 l/m 0 min 2 min 120 W/m 6,4 km/h (2 Bft) 100,00 %
25.02.2022 13:50 4,9 C 5,0 C 1,1 C 91 % 1022,5 hPa 0,0 l/m 0 min 0 min 169 W/m 12,9 km/h (3 Bft) 100,00 %
25.02.2022 13:52 4,9 C 7,8 C 1,1 C 91 % 1022,5 hPa 0,0 l/m 2 min 0 min 334 W/m 9,7 km/h (2 Bft) 100,00 %
25.02.2022 13:54 5,1 C 9,4 C 1,7 C 91 % 1022,6 hPa 0,2 l/m 2 min 0 min 490 W/m 9,7 km/h (2 Bft) 100,00 %
25.02.2022 13:56 5,3 C 10,0 C 1,7 C 92 % 1022,6 hPa 0,0 l/m 2 min 0 min 487 W/m 12,9 km/h (3 Bft) 100,00 %
25.02.2022 13:58 5,6 C 10,6 C 1,7 C 92 % 1022,6 hPa 0,0 l/m 2 min 0 min 494 W/m 12,9 km/h (3 Bft) 100,00 %
25.02.2022 14:00 5,8 C 10,6 C 2,2 C 92 % 1022,7 hPa 0,0 l/m 2 min 0 min 476 W/m 16,1 km/h (3 Bft) 100,00 %
25.02.2022 14:02 5,9 C 10,0 C 2,2 C 92 % 1022,7 hPa 0,0 l/m 2 min 0 min 439 W/m 12,9 km/h (3 Bft) 97,83 %
25.02.2022 14:04 6,1 C 10,0 C 2,2 C 91 % 1022,8 hPa 0,2 l/m 2 min 0 min 398 W/m 9,7 km/h (2 Bft) 100,00 %
25.02.2022 14:06 6,2 C 9,4 C 2,2 C 91 % 1022,9 hPa 0,0 l/m 2 min 0 min 300 W/m 12,9 km/h (3 Bft) 97,87 %
25.02.2022 14:08 6,3 C 8,3 C 2,2 C 91 % 1023,0 hPa 0,0 l/m 0 min 0 min 177 W/m 16,1 km/h (3 Bft) 100,00 %
25.02.2022 14:10 6,3 C 7,2 C 2,2 C 90 % 1023,0 hPa 0,0 l/m 0 min 0 min 137 W/m 12,9 km/h (3 Bft) 100,00 %
25.02.2022 14:12 6,3 C 6,7 C 2,2 C 89 % 1023,0 hPa 0,0 l/m 0 min 0 min 112 W/m 16,1 km/h (3 Bft) 93,62 %
25.02.2022 14:14 6,2 C 6,1 C 2,2 C 89 % 1023,1 hPa 0,0 l/m 0 min 0 min 76 W/m 12,9 km/h (3 Bft) 97,87 %
25.02.2022 14:16 6,2 C 6,1 C 2,2 C 88 % 1023,1 hPa 0,0 l/m 0 min 0 min 52 W/m 12,9 km/h (3 Bft) 97,83 %
25.02.2022 14:18 6,1 C 5,6 C 1,7 C 88 % 1023,1 hPa 0,0 l/m 0 min 0 min 33 W/m 9,7 km/h (2 Bft) 97,87 %
25.02.2022 14:20 6,1 C 5,6 C 1,7 C 88 % 1023,3 hPa 0,0 l/m 0 min 2 min 23 W/m 12,9 km/h (3 Bft) 97,87 %
25.02.2022 14:22 6,0 C 5,0 C 1,7 C 88 % 1023,3 hPa 0,0 l/m 0 min 2 min 16 W/m 9,7 km/h (2 Bft) 97,87 %
25.02.2022 14:24 5,9 C 5,0 C 1,7 C 88 % 1023,4 hPa 0,0 l/m 0 min 2 min 11 W/m 12,9 km/h (3 Bft) 97,87 %
25.02.2022 14:26 5,9 C 5,0 C 1,7 C 88 % 1023,3 hPa 0,0 l/m 0 min 2 min 13 W/m 9,7 km/h (2 Bft) 97,87 %
25.02.2022 14:28 5,8 C 5,0 C 1,7 C 88 % 1023,2 hPa 0,0 l/m 0 min 2 min 30 W/m 32,2 km/h (5 Bft) 97,83 %
25.02.2022 14:30 5,7 C 5,0 C 1,7 C 88 % 1023,1 hPa 0,0 l/m 0 min 2 min 62 W/m 16,1 km/h (3 Bft) 95,74 %
25.02.2022 14:32 5,7 C 5,0 C 1,7 C 88 % 1023,2 hPa 0,0 l/m 0 min 2 min 80 W/m 9,7 km/h (2 Bft) 97,87 %
25.02.2022 14:34 5,7 C 5,0 C 1,7 C 88 % 1023,4 hPa 0,0 l/m 0 min 2 min 75 W/m 22,5 km/h (4 Bft) 97,87 %
25.02.2022 14:36 5,7 C 5,0 C 1,7 C 88 % 1023,4 hPa 0,0 l/m 0 min 0 min 89 W/m 19,3 km/h (3 Bft) 97,87 %
25.02.2022 14:38 5,7 C 5,6 C 1,7 C 88 % 1023,4 hPa 0,0 l/m 0 min 2 min 101 W/m 12,9 km/h (3 Bft) 97,96 %
25.02.2022 14:40 5,7 C 5,6 C 1,7 C 89 % 1023,4 hPa 0,0 l/m 0 min 0 min 108 W/m 22,5 km/h (4 Bft) 97,87 %
25.02.2022 14:42 5,7 C 5,6 C 1,7 C 88 % 1023,4 hPa 0,0 l/m 0 min 0 min 94 W/m 25,7 km/h (4 Bft) 95,74 %
25.02.2022 14:44 5,7 C 5,6 C 1,7 C 88 % 1023,5 hPa 0,0 l/m 0 min 2 min 65 W/m 16,1 km/h (3 Bft) 97,87 %
25.02.2022 14:46 5,7 C 5,0 C 1,7 C 88 % 1023,5 hPa 0,0 l/m 0 min 2 min 35 W/m 25,7 km/h (4 Bft) 95,74 %
25.02.2022 14:48 5,6 C 5,0 C 1,1 C 88 % 1023,4 hPa 0,2 l/m 0 min 2 min 29 W/m 25,7 km/h (4 Bft) 97,87 %
25.02.2022 14:50 5,6 C 4,4 C 1,1 C 87 % 1023,4 hPa 0,0 l/m 0 min 2 min 37 W/m 16,1 km/h (3 Bft) 97,83 %
25.02.2022 14:52 5,4 C 4,4 C 1,1 C 87 % 1023,5 hPa 0,0 l/m 0 min 2 min 22 W/m 32,2 km/h (5 Bft) 97,87 %
25.02.2022 14:54 5,2 C 3,9 C 0,6 C 87 % 1023,5 hPa 0,2 l/m 0 min 2 min 13 W/m 25,7 km/h (4 Bft) 97,87 %
25.02.2022 14:56 5,1 C 3,3 C 0,6 C 86 % 1023,5 hPa 0,2 l/m 0 min 2 min 25 W/m 16,1 km/h (3 Bft) 97,87 %
25.02.2022 14:58 4,9 C 3,3 C 0,6 C 87 % 1023,5 hPa 0,0 l/m 0 min 2 min 39 W/m 19,3 km/h (3 Bft) 97,87 %
25.02.2022 15:00 4,8 C 3,3 C 0,6 C 87 % 1023,4 hPa 0,0 l/m 0 min 2 min 48 W/m 9,7 km/h (2 Bft) 97,87 %
25.02.2022 15:02 4,8 C 3,3 C 0,6 C 88 % 1023,5 hPa 0,2 l/m 0 min 0 min 55 W/m 12,9 km/h (3 Bft) 95,65 %
25.02.2022 15:04 4,7 C 3,9 C 0,6 C 88 % 1023,5 hPa 0,0 l/m 0 min 0 min 63 W/m 12,9 km/h (3 Bft) 91,49 %
25.02.2022 15:06 4,7 C 3,9 C 0,6 C 88 % 1023,6 hPa 0,0 l/m 0 min 0 min 72 W/m 9,7 km/h (2 Bft) 95,74 %
25.02.2022 15:08 4,7 C 4,4 C 0,6 C 88 % 1023,7 hPa 0,0 l/m 0 min 0 min 100 W/m 12,9 km/h (3 Bft) 95,74 %
25.02.2022 15:10 4,7 C 6,7 C 0,6 C 89 % 1023,7 hPa 0,0 l/m 2 min 0 min 263 W/m 9,7 km/h (2 Bft) 97,87 %
25.02.2022 15:12 4,8 C 7,2 C 1,1 C 89 % 1023,7 hPa 0,0 l/m 2 min 0 min 373 W/m 9,7 km/h (2 Bft) 97,83 %
25.02.2022 15:14 4,9 C 7,8 C 1,1 C 90 % 1023,7 hPa 0,0 l/m 2 min 0 min 336 W/m 9,7 km/h (2 Bft) 95,74 %
25.02.2022 15:16 5,1 C 6,7 C 1,1 C 90 % 1023,7 hPa 0,0 l/m 0 min 0 min 124 W/m 12,9 km/h (3 Bft) 93,62 %
25.02.2022 15:18 5,1 C 6,1 C 1,1 C 90 % 1023,7 hPa 0,0 l/m 0 min 0 min 71 W/m 9,7 km/h (2 Bft) 95,74 %
25.02.2022 15:20 5,1 C 5,6 C 1,1 C 90 % 1023,7 hPa 0,0 l/m 0 min 0 min 84 W/m 16,1 km/h (3 Bft) 95,74 %
25.02.2022 15:22 5,1 C 5,6 C 1,1 C 90 % 1023,7 hPa 0,0 l/m 2 min 0 min 187 W/m 16,1 km/h (3 Bft) 93,62 %
25.02.2022 15:24 5,2 C 7,2 C 1,1 C 90 % 1023,7 hPa 0,0 l/m 2 min 0 min 332 W/m 16,1 km/h (3 Bft) 93,48 %
25.02.2022 15:26 5,3 C 8,3 C 1,1 C 91 % 1023,7 hPa 0,0 l/m 2 min 0 min 345 W/m 12,9 km/h (3 Bft) 93,62 %
25.02.2022 15:28 5,4 C 9,4 C 1,7 C 91 % 1023,7 hPa 0,0 l/m 2 min 0 min 359 W/m 12,9 km/h (3 Bft) 95,74 %
25.02.2022 15:30 5,6 C 10,6 C 1,7 C 91 % 1023,7 hPa 0,0 l/m 2 min 0 min 355 W/m 12,9 km/h (3 Bft) 95,74 %
25.02.2022 15:32 5,7 C 10,6 C 1,7 C 91 % 1023,8 hPa 0,0 l/m 2 min 0 min 350 W/m 16,1 km/h (3 Bft) 95,74 %
25.02.2022 15:34 5,8 C 9,4 C 1,7 C 90 % 1023,8 hPa 0,0 l/m 2 min 0 min 348 W/m 22,5 km/h (4 Bft) 95,74 %
25.02.2022 15:36 5,9 C 10,0 C 1,7 C 90 % 1023,8 hPa 0,0 l/m 2 min 0 min 344 W/m 16,1 km/h (3 Bft) 95,65 %
25.02.2022 15:38 6,1 C 10,0 C 1,7 C 90 % 1023,8 hPa 0,0 l/m 2 min 0 min 342 W/m 22,5 km/h (4 Bft) 95,74 %
25.02.2022 15:40 6,1 C 10,6 C 1,7 C 89 % 1023,8 hPa 0,0 l/m 2 min 0 min 341 W/m 19,3 km/h (3 Bft) 95,74 %
25.02.2022 15:42 6,2 C 10,0 C 1,7 C 89 % 1023,9 hPa 0,0 l/m 2 min 0 min 304 W/m 22,5 km/h (4 Bft) 93,62 %
25.02.2022 15:44 6,3 C 10,0 C 2,2 C 88 % 1024,0 hPa 0,0 l/m 2 min 0 min 332 W/m 16,1 km/h (3 Bft) 93,62 %
25.02.2022 15:46 6,4 C 9,4 C 2,2 C 88 % 1024,0 hPa 0,0 l/m 2 min 0 min 330 W/m 22,5 km/h (4 Bft) 95,74 %
25.02.2022 15:48 6,4 C 8,3 C 2,2 C 86 % 1024,2 hPa 0,0 l/m 2 min 0 min 329 W/m 38,6 km/h (5 Bft) 97,83 %
25.02.2022 15:50 6,4 C 8,3 C 2,2 C 86 % 1024,2 hPa 0,0 l/m 2 min 0 min 326 W/m 32,2 km/h (5 Bft) 95,74 %
25.02.2022 15:52 6,3 C 8,3 C 2,2 C 85 % 1024,2 hPa 0,0 l/m 2 min 0 min 321 W/m 25,7 km/h (4 Bft) 97,87 %
25.02.2022 15:54 6,3 C 9,4 C 2,2 C 85 % 1024,2 hPa 0,0 l/m 2 min 0 min 314 W/m 19,3 km/h (3 Bft) 97,87 %
25.02.2022 15:56 6,4 C 10,0 C 2,2 C 85 % 1024,2 hPa 0,0 l/m 2 min 0 min 307 W/m 19,3 km/h (3 Bft) 95,74 %
25.02.2022 15:58 6,3 C 8,9 C 2,2 C 85 % 1024,2 hPa 0,0 l/m 2 min 0 min 300 W/m 19,3 km/h (3 Bft) 97,83 %
25.02.2022 16:00 6,3 C 8,3 C 2,2 C 85 % 1024,2 hPa 0,0 l/m 2 min 0 min 290 W/m 19,3 km/h (3 Bft) 97,87 %
25.02.2022 16:02 6,3 C 8,9 C 2,2 C 85 % 1024,2 hPa 0,0 l/m 2 min 0 min 285 W/m 16,1 km/h (3 Bft) 97,87 %
25.02.2022 16:04 6,3 C 7,2 C 2,2 C 85 % 1024,2 hPa 0,0 l/m 2 min 0 min 279 W/m 16,1 km/h (3 Bft) 95,74 %
25.02.2022 16:06 6,3 C 6,7 C 2,2 C 84 % 1024,2 hPa 0,0 l/m 2 min 0 min 271 W/m 19,3 km/h (3 Bft) 96,00 %
25.02.2022 16:08 6,2 C 6,1 C 2,2 C 84 % 1024,2 hPa 0,0 l/m 2 min 0 min 263 W/m 19,3 km/h (3 Bft) 95,74 %
25.02.2022 16:10 6,3 C 6,1 C 2,2 C 84 % 1024,2 hPa 0,0 l/m 2 min 0 min 256 W/m 16,1 km/h (3 Bft) 97,83 %
25.02.2022 16:12 6,3 C 6,1 C 2,2 C 84 % 1024,2 hPa 0,0 l/m 2 min 0 min 251 W/m 12,9 km/h (3 Bft) 97,96 %
25.02.2022 16:14 6,3 C 5,6 C 2,2 C 84 % 1024,1 hPa 0,0 l/m 2 min 0 min 241 W/m 19,3 km/h (3 Bft) 97,14 %
25.02.2022 16:16 6,3 C 5,6 C 2,2 C 84 % 1024,2 hPa 0,0 l/m 2 min 0 min 236 W/m 6,4 km/h (2 Bft) 100,00 %
25.02.2022 16:18 6,3 C 5,6 C 2,2 C 84 % 1024,2 hPa 0,0 l/m 2 min 0 min 232 W/m 16,1 km/h (3 Bft) 100,00 %
25.02.2022 16:20 6,2 C 5,6 C 2,2 C 84 % 1024,2 hPa 0,0 l/m 2 min 0 min 228 W/m 16,1 km/h (3 Bft) 100,00 %
25.02.2022 16:22 6,2 C 5,6 C 2,2 C 84 % 1024,3 hPa 0,0 l/m 2 min 0 min 223 W/m 12,9 km/h (3 Bft) 100,00 %
25.02.2022 16:24 6,3 C 6,1 C 2,8 C 84 % 1024,3 hPa 0,0 l/m 2 min 0 min 217 W/m 16,1 km/h (3 Bft) 100,00 %
25.02.2022 16:26 6,3 C 6,1 C 2,8 C 84 % 1024,4 hPa 0,0 l/m 2 min 0 min 211 W/m 16,1 km/h (3 Bft) 100,00 %
25.02.2022 16:28 6,2 C 6,1 C 2,8 C 84 % 1024,5 hPa 0,0 l/m 2 min 0 min 191 W/m 16,1 km/h (3 Bft) 100,00 %
25.02.2022 16:30 6,3 C 6,1 C 2,8 C 84 % 1024,4 hPa 0,0 l/m 2 min 0 min 145 W/m 12,9 km/h (3 Bft) 100,00 %
25.02.2022 16:32 6,3 C 6,1 C 2,8 C 84 % 1024,5 hPa 0,0 l/m 2 min 0 min 189 W/m 19,3 km/h (3 Bft) 100,00 %
25.02.2022 16:34 6,3 C 6,1 C 2,8 C 84 % 1024,5 hPa 0,0 l/m 2 min 0 min 218 W/m 16,1 km/h (3 Bft) 100,00 %
25.02.2022 16:36 6,3 C 6,1 C 2,8 C 84 % 1024,6 hPa 0,0 l/m 2 min 0 min 230 W/m 19,3 km/h (3 Bft) 97,14 %
25.02.2022 16:38 6,4 C 6,1 C 2,8 C 85 % 1024,6 hPa 0,0 l/m 2 min 0 min 202 W/m 16,1 km/h (3 Bft) 100,00 %
25.02.2022 16:40 6,4 C 6,7 C 2,8 C 85 % 1024,6 hPa 0,0 l/m 2 min 0 min 157 W/m 25,7 km/h (4 Bft) 100,00 %
25.02.2022 16:42 6,5 C 6,7 C 3,3 C 84 % 1024,7 hPa 0,0 l/m 2 min 0 min 144 W/m 22,5 km/h (4 Bft) 100,00 %
25.02.2022 16:44 6,5 C 6,7 C 3,3 C 84 % 1024,8 hPa 0,0 l/m 2 min 0 min 154 W/m 25,7 km/h (4 Bft) 97,83 %
25.02.2022 16:46 6,5 C 6,7 C 3,3 C 84 % 1024,8 hPa 0,0 l/m 2 min 0 min 172 W/m 19,3 km/h (3 Bft) 100,00 %
25.02.2022 16:48 6,6 C 6,7 C 3,3 C 84 % 1024,8 hPa 0,0 l/m 2 min 0 min 190 W/m 22,5 km/h (4 Bft) 100,00 %
25.02.2022 16:50 6,7 C 6,7 C 3,3 C 84 % 1024,8 hPa 0,0 l/m 2 min 0 min 189 W/m 25,7 km/h (4 Bft) 100,00 %
25.02.2022 16:52 6,7 C 7,2 C 3,3 C 84 % 1024,9 hPa 0,0 l/m 2 min 0 min 180 W/m 19,3 km/h (3 Bft) 100,00 %
25.02.2022 16:54 6,8 C 7,2 C 3,3 C 83 % 1025,0 hPa 0,0 l/m 2 min 0 min 181 W/m 22,5 km/h (4 Bft) 97,87 %
25.02.2022 16:56 6,8 C 7,2 C 3,3 C 83 % 1025,0 hPa 0,0 l/m 2 min 2 min 177 W/m 19,3 km/h (3 Bft) 100,00 %
25.02.2022 16:58 6,8 C 7,2 C 3,3 C 83 % 1025,1 hPa 0,0 l/m 2 min 0 min 168 W/m 25,7 km/h (4 Bft) 98,00 %
25.02.2022 17:00 6,9 C 6,7 C 3,3 C 83 % 1025,1 hPa 0,0 l/m 2 min 0 min 135 W/m 32,2 km/h (5 Bft) 97,87 %
25.02.2022 17:02 6,9 C 6,7 C 3,3 C 82 % 1025,1 hPa 0,0 l/m 0 min 2 min 52 W/m 35,4 km/h (5 Bft) 96,00 %
25.02.2022 17:04 6,8 C 6,7 C 3,3 C 83 % 1025,2 hPa 0,0 l/m 0 min 2 min 32 W/m 25,7 km/h (4 Bft) 97,37 %
25.02.2022 17:06 6,8 C 6,1 C 2,8 C 83 % 1025,2 hPa 0,0 l/m 0 min 2 min 20 W/m 29,0 km/h (5 Bft) 96,00 %
25.02.2022 17:08 6,7 C 5,6 C 2,2 C 83 % 1025,4 hPa 0,2 l/m 0 min 2 min 15 W/m 25,7 km/h (4 Bft) 97,92 %
25.02.2022 17:10 6,6 C 5,6 C 2,2 C 84 % 1025,3 hPa 0,0 l/m 0 min 2 min 12 W/m 29,0 km/h (5 Bft) 97,87 %
25.02.2022 17:12 6,4 C 5,6 C 2,2 C 85 % 1025,5 hPa 0,0 l/m 0 min 2 min 8 W/m 25,7 km/h (4 Bft) 97,87 %
25.02.2022 17:14 6,3 C 5,0 C 1,7 C 85 % 1025,5 hPa 0,2 l/m 0 min 2 min 9 W/m 38,6 km/h (5 Bft) 97,87 %
25.02.2022 17:16 6,2 C 5,0 C 1,7 C 86 % 1025,7 hPa 0,0 l/m 0 min 2 min 7 W/m 32,2 km/h (5 Bft) 95,24 %
25.02.2022 17:18 5,9 C 4,4 C 1,1 C 86 % 1025,6 hPa 0,0 l/m 0 min 2 min 9 W/m 22,5 km/h (4 Bft) 97,87 %
25.02.2022 17:20 5,8 C 4,4 C 1,1 C 87 % 1025,7 hPa 0,0 l/m 0 min 2 min 12 W/m 16,1 km/h (3 Bft) 97,96 %
25.02.2022 17:22 5,7 C 4,4 C 1,1 C 87 % 1025,7 hPa 0,0 l/m 0 min 0 min 13 W/m 29,0 km/h (5 Bft) 95,74 %
25.02.2022 17:24 5,6 C 4,4 C 1,1 C 88 % 1025,7 hPa 0,2 l/m 0 min 0 min 17 W/m 25,7 km/h (4 Bft) 95,74 %
25.02.2022 17:26 5,4 C 4,4 C 1,1 C 88 % 1025,7 hPa 0,0 l/m 0 min 0 min 19 W/m 12,9 km/h (3 Bft) 97,96 %
25.02.2022 17:28 5,2 C 4,4 C 1,1 C 88 % 1025,7 hPa 0,0 l/m 0 min 0 min 25 W/m 19,3 km/h (3 Bft) 97,87 %
25.02.2022 17:30 5,1 C 4,4 C 0,6 C 89 % 1025,8 hPa 0,0 l/m 0 min 0 min 30 W/m 16,1 km/h (3 Bft) 97,87 %
25.02.2022 17:32 5,1 C 4,4 C 0,6 C 89 % 1025,8 hPa 0,0 l/m 0 min 0 min 32 W/m 22,5 km/h (4 Bft) 97,62 %
25.02.2022 17:34 4,9 C 4,4 C 0,6 C 90 % 1025,7 hPa 0,0 l/m 0 min 0 min 32 W/m 16,1 km/h (3 Bft) 95,92 %
25.02.2022 17:36 4,9 C 4,4 C 0,6 C 90 % 1025,8 hPa 0,0 l/m 0 min 0 min 31 W/m 9,7 km/h (2 Bft) 97,96 %
25.02.2022 17:38 4,9 C 3,9 C 0,6 C 90 % 1025,8 hPa 0,0 l/m 0 min 0 min 22 W/m 16,1 km/h (3 Bft) 95,74 %
25.02.2022 17:40 4,8 C 3,9 C 0,6 C 90 % 1025,8 hPa 0,0 l/m 0 min 0 min 18 W/m 19,3 km/h (3 Bft) 95,74 %
25.02.2022 17:42 4,8 C 3,9 C 0,6 C 90 % 1025,9 hPa 0,0 l/m 0 min 0 min 16 W/m 16,1 km/h (3 Bft) 95,74 %
25.02.2022 17:44 4,7 C 3,9 C 0,6 C 91 % 1026,0 hPa 0,0 l/m 0 min 0 min 16 W/m 9,7 km/h (2 Bft) 95,12 %
25.02.2022 17:46 4,7 C 3,9 C 0,6 C 91 % 1025,9 hPa 0,0 l/m 0 min 0 min 13 W/m 9,7 km/h (2 Bft) 95,74 %
25.02.2022 17:48 4,7 C 3,9 C 0,6 C 91 % 1025,9 hPa 0,0 l/m 0 min 0 min 12 W/m 12,9 km/h (3 Bft) 95,74 %
25.02.2022 17:50 4,7 C 3,9 C 0,6 C 91 % 1025,9 hPa 0,0 l/m 0 min 0 min 11 W/m 6,4 km/h (2 Bft) 94,00 %
25.02.2022 17:52 4,6 C 3,9 C 0,6 C 91 % 1026,0 hPa 0,0 l/m 0 min 0 min 11 W/m 6,4 km/h (2 Bft) 93,62 %
25.02.2022 17:54 4,6 C 3,9 C 0,6 C 91 % 1026,0 hPa 0,0 l/m 0 min 0 min 11 W/m 9,7 km/h (2 Bft) 97,92 %
25.02.2022 17:56 4,6 C 3,9 C 0,6 C 91 % 1026,0 hPa 0,0 l/m 0 min 0 min 9 W/m 3,2 km/h (1 Bft) 95,74 %
25.02.2022 17:58 4,6 C 3,3 C 0,6 C 91 % 1026,1 hPa 0,0 l/m 0 min 0 min 9 W/m 3,2 km/h (1 Bft) 100,00 %
25.02.2022 18:00 4,5 C 3,3 C 0,6 C 91 % 1026,1 hPa 0,0 l/m 0 min 0 min 7 W/m 6,4 km/h (2 Bft) 94,44 %
25.02.2022 18:02 4,4 C 3,3 C 0,6 C 91 % 1026,3 hPa 0,0 l/m 0 min 0 min 7 W/m 6,4 km/h (2 Bft) 98,00 %
25.02.2022 18:04 4,4 C 3,3 C 0,6 C 91 % 1026,3 hPa 0,0 l/m 0 min 0 min 6 W/m 6,4 km/h (2 Bft) 97,67 %
25.02.2022 18:08 4,3 C 3,3 C 0,0 C 92 % 1026,4 hPa 0,0 l/m 0 min 0 min 5 W/m 6,4 km/h (2 Bft) 95,00 %
25.02.2022 18:10 4,3 C 3,3 C 0,0 C 92 % 1026,5 hPa 0,0 l/m 0 min 0 min 1 W/m 6,4 km/h (2 Bft) 97,37 %
25.02.2022 18:12 4,3 C 3,3 C 0,0 C 92 % 1026,5 hPa 0,0 l/m 0 min 0 min 0 W/m 3,2 km/h (1 Bft) 97,96 %
25.02.2022 18:14 4,3 C 3,3 C 0,0 C 92 % 1026,6 hPa 0,0 l/m 0 min 0 min 0 W/m 3,2 km/h (1 Bft) 95,74 %
25.02.2022 18:16 4,2 C 3,3 C 0,0 C 92 % 1026,6 hPa 0,0 l/m 0 min 0 min 0 W/m 6,4 km/h (2 Bft) 98,11 %
25.02.2022 18:18 4,2 C 3,3 C 0,0 C 92 % 1026,6 hPa 0,0 l/m 0 min 0 min 0 W/m 3,2 km/h (1 Bft) 97,44 %
25.02.2022 18:20 4,2 C 3,3 C 0,0 C 92 % 1026,7 hPa 0,0 l/m 0 min 0 min 0 W/m 6,4 km/h (2 Bft) 97,83 %
25.02.2022 18:22 4,2 C 3,3 C 0,0 C 92 % 1026,7 hPa 0,0 l/m 0 min 0 min 0 W/m 9,7 km/h (2 Bft) 97,96 %
25.02.2022 18:24 4,1 C 3,3 C 0,0 C 92 % 1026,7 hPa 0,0 l/m 0 min 0 min 0 W/m 6,4 km/h (2 Bft) 97,87 %
25.02.2022 18:26 4,1 C 3,3 C 0,0 C 92 % 1026,8 hPa 0,0 l/m 0 min 0 min 0 W/m 3,2 km/h (1 Bft) 97,87 %
25.02.2022 18:28 4,1 C 3,3 C 0,0 C 92 % 1026,9 hPa 0,0 l/m 0 min 0 min 0 W/m 6,4 km/h (2 Bft) 94,34 %
25.02.2022 18:30 4,0 C 3,3 C 0,0 C 92 % 1026,8 hPa 0,0 l/m 0 min 0 min 0 W/m 6,4 km/h (2 Bft) 100,00 %
25.02.2022 18:32 4,0 C 3,3 C 0,0 C 92 % 1026,9 hPa 0,0 l/m 0 min 0 min 0 W/m 9,7 km/h (2 Bft) 95,92 %
25.02.2022 18:34 4,0 C 3,3 C 0,0 C 92 % 1027,0 hPa 0,0 l/m 0 min 0 min 0 W/m 6,4 km/h (2 Bft) 97,87 %
25.02.2022 18:36 3,9 C 3,3 C 0,0 C 92 % 1027,0 hPa 0,0 l/m 0 min 0 min 0 W/m 6,4 km/h (2 Bft) 97,87 %
25.02.2022 18:38 3,9 C 3,3 C 0,6 C 92 % 1027,0 hPa 0,0 l/m 0 min 0 min 0 W/m 9,7 km/h (2 Bft) 97,87 %
25.02.2022 18:40 3,9 C 3,3 C 0,0 C 92 % 1027,0 hPa 0,0 l/m 0 min 0 min 0 W/m 6,4 km/h (2 Bft) 95,74 %
25.02.2022 18:42 3,9 C 3,3 C 0,0 C 92 % 1027,1 hPa 0,0 l/m 0 min 0 min 0 W/m 6,4 km/h (2 Bft) 98,11 %
25.02.2022 18:44 3,9 C 3,3 C 0,0 C 92 % 1027,2 hPa 0,0 l/m 0 min 0 min 0 W/m 6,4 km/h (2 Bft) 100,00 %
25.02.2022 18:46 3,9 C 3,3 C 0,0 C 92 % 1027,2 hPa 0,0 l/m 0 min 0 min 0 W/m 6,4 km/h (2 Bft) 97,96 %
25.02.2022 18:48 3,8 C 3,3 C 0,0 C 92 % 1027,2 hPa 0,0 l/m 0 min 0 min 0 W/m 6,4 km/h (2 Bft) 100,00 %
25.02.2022 18:50 3,8 C 3,3 C 0,0 C 92 % 1027,2 hPa 0,0 l/m 0 min 0 min 0 W/m 9,7 km/h (2 Bft) 100,00 %
25.02.2022 18:52 3,8 C 3,3 C 0,0 C 92 % 1027,3 hPa 0,0 l/m 0 min 0 min 0 W/m 12,9 km/h (3 Bft) 98,11 %
25.02.2022 18:54 3,8 C 3,3 C 0,0 C 92 % 1027,3 hPa 0,0 l/m 0 min 0 min 0 W/m 9,7 km/h (2 Bft) 100,00 %
25.02.2022 18:56 3,8 C 3,3 C 0,0 C 92 % 1027,3 hPa 0,0 l/m 0 min 0 min 0 W/m 6,4 km/h (2 Bft) 97,96 %
25.02.2022 18:58 3,8 C 3,3 C 0,0 C 92 % 1027,3 hPa 0,0 l/m 0 min 0 min 0 W/m 6,4 km/h (2 Bft) 100,00 %
25.02.2022 19:00 3,8 C 3,3 C 0,0 C 92 % 1027,4 hPa 0,0 l/m 0 min 0 min 0 W/m 6,4 km/h (2 Bft) 97,96 %
25.02.2022 19:02 3,8 C 3,3 C 0,0 C 92 % 1027,4 hPa 0,0 l/m 0 min 0 min 0 W/m 6,4 km/h (2 Bft) 96,00 %
25.02.2022 19:04 3,8 C 3,3 C 0,6 C 92 % 1027,4 hPa 0,0 l/m 0 min 0 min 0 W/m 6,4 km/h (2 Bft) 100,00 %
25.02.2022 19:06 3,8 C 3,3 C 0,6 C 92 % 1027,5 hPa 0,0 l/m 0 min 0 min 0 W/m 9,7 km/h (2 Bft) 100,00 %
25.02.2022 19:08 3,8 C 3,3 C 0,6 C 92 % 1027,5 hPa 0,0 l/m 0 min 0 min 0 W/m 9,7 km/h (2 Bft) 97,87 %
25.02.2022 19:10 3,8 C 3,3 C 0,6 C 92 % 1027,5 hPa 0,0 l/m 0 min 0 min 0 W/m 9,7 km/h (2 Bft) 100,00 %
25.02.2022 19:12 3,8 C 3,3 C 0,6 C 92 % 1027,5 hPa 0,0 l/m 0 min 0 min 0 W/m 6,4 km/h (2 Bft) 98,15 %
25.02.2022 19:14 3,8 C 3,3 C 0,6 C 92 % 1027,5 hPa 0,0 l/m 0 min 0 min 0 W/m 9,7 km/h (2 Bft) 100,00 %
25.02.2022 19:16 3,8 C 3,3 C 0,6 C 92 % 1027,6 hPa 0,0 l/m 0 min 0 min 0 W/m 9,7 km/h (2 Bft) 100,00 %
25.02.2022 19:18 3,8 C 3,3 C 0,6 C 92 % 1027,6 hPa 0,0 l/m 0 min 0 min 0 W/m 9,7 km/h (2 Bft) 100,00 %
25.02.2022 19:20 3,8 C 3,3 C 0,6 C 92 % 1027,6 hPa 0,0 l/m 0 min 0 min 0 W/m 6,4 km/h (2 Bft) 95,92 %
25.02.2022 19:22 3,8 C 3,3 C 0,6 C 92 % 1027,7 hPa 0,0 l/m 0 min 0 min 0 W/m 6,4 km/h (2 Bft) 100,00 %
25.02.2022 19:24 3,8 C 3,3 C 0,6 C 92 % 1027,7 hPa 0,0 l/m 0 min 0 min 0 W/m 6,4 km/h (2 Bft) 94,44 %
25.02.2022 19:26 3,8 C 3,3 C 0,6 C 92 % 1027,8 hPa 0,0 l/m 0 min 0 min 0 W/m 9,7 km/h (2 Bft) 97,96 %
25.02.2022 19:28 3,8 C 3,3 C 0,6 C 92 % 1027,9 hPa 0,0 l/m 0 min 0 min 0 W/m 9,7 km/h (2 Bft) 97,96 %
25.02.2022 19:30 3,8 C 2,8 C 0,6 C 92 % 1027,8 hPa 0,0 l/m 0 min 0 min 0 W/m 9,7 km/h (2 Bft) 95,74 %
25.02.2022 19:32 3,7 C 2,8 C 0,6 C 92 % 1027,9 hPa 0,0 l/m 0 min 0 min 0 W/m 9,7 km/h (2 Bft) 97,14 %
25.02.2022 19:34 3,7 C 2,8 C 0,6 C 92 % 1028,0 hPa 0,0 l/m 0 min 0 min 0 W/m 12,9 km/h (3 Bft) 98,15 %
25.02.2022 19:36 3,7 C 2,8 C 0,6 C 92 % 1028,1 hPa 0,0 l/m 0 min 0 min 0 W/m 6,4 km/h (2 Bft) 98,00 %
25.02.2022 19:38 3,7 C 2,8 C 0,6 C 92 % 1028,1 hPa 0,0 l/m 0 min 0 min 0 W/m 9,7 km/h (2 Bft) 95,65 %
25.02.2022 19:40 3,7 C 2,8 C 0,0 C 92 % 1028,1 hPa 0,0 l/m 0 min 0 min 0 W/m 6,4 km/h (2 Bft) 97,87 %
25.02.2022 19:42 3,7 C 2,8 C 0,0 C 92 % 1028,2 hPa 0,0 l/m 0 min 0 min 0 W/m 6,4 km/h (2 Bft) 97,96 %
25.02.2022 19:44 3,6 C 2,8 C 0,0 C 92 % 1028,3 hPa 0,0 l/m 0 min 0 min 0 W/m 6,4 km/h (2 Bft) 97,87 %
25.02.2022 19:46 3,6 C 2,8 C 0,0 C 92 % 1028,3 hPa 0,0 l/m 0 min 0 min 0 W/m 9,7 km/h (2 Bft) 97,14 %
25.02.2022 19:48 3,6 C 2,8 C 0,0 C 92 % 1028,3 hPa 0,0 l/m 0 min 0 min 0 W/m 9,7 km/h (2 Bft) 100,00 %
25.02.2022 19:50 3,6 C 2,8 C 0,0 C 92 % 1028,4 hPa 0,0 l/m 0 min 0 min 0 W/m 6,4 km/h (2 Bft) 100,00 %
25.02.2022 19:52 3,6 C 2,8 C 0,0 C 92 % 1028,5 hPa 0,0 l/m 0 min 0 min 0 W/m 6,4 km/h (2 Bft) 100,00 %
25.02.2022 19:54 3,6 C 2,8 C 0,0 C 92 % 1028,6 hPa 0,0 l/m 0 min 0 min 0 W/m 6,4 km/h (2 Bft) 100,00 %
25.02.2022 19:56 3,6 C 2,8 C 0,0 C 92 % 1028,6 hPa 0,0 l/m 0 min 0 min 0 W/m 9,7 km/h (2 Bft) 100,00 %
25.02.2022 19:58 3,6 C 2,8 C 0,0 C 92 % 1028,6 hPa 0,0 l/m 0 min 0 min 0 W/m 6,4 km/h (2 Bft) 100,00 %
25.02.2022 20:00 3,5 C 2,8 C 0,0 C 92 % 1028,7 hPa 0,0 l/m 0 min 0 min 0 W/m 6,4 km/h (2 Bft) 97,87 %
25.02.2022 20:02 3,5 C 2,8 C 0,0 C 92 % 1028,8 hPa 0,0 l/m 0 min 0 min 0 W/m 6,4 km/h (2 Bft) 100,00 %
25.02.2022 20:04 3,5 C 2,8 C 0,0 C 92 % 1028,8 hPa 0,0 l/m 0 min 0 min 0 W/m 12,9 km/h (3 Bft) 100,00 %
25.02.2022 20:06 3,4 C 2,8 C 0,0 C 92 % 1028,9 hPa 0,0 l/m 0 min 0 min 0 W/m 9,7 km/h (2 Bft) 100,00 %
25.02.2022 20:08 3,4 C 2,8 C 0,0 C 92 % 1028,9 hPa 0,0 l/m 0 min 0 min 0 W/m 6,4 km/h (2 Bft) 96,00 %
25.02.2022 20:10 3,4 C 2,8 C 0,0 C 92 % 1028,9 hPa 0,0 l/m 0 min 0 min 0 W/m 16,1 km/h (3 Bft) 100,00 %
25.02.2022 20:12 3,5 C 2,8 C 0,0 C 92 % 1029,0 hPa 0,0 l/m 0 min 0 min 0 W/m 6,4 km/h (2 Bft) 97,87 %
25.02.2022 20:14 3,4 C 2,8 C 0,0 C 92 % 1029,1 hPa 0,0 l/m 0 min 0 min 0 W/m 12,9 km/h (3 Bft) 97,83 %
25.02.2022 20:16 3,5 C 2,8 C 0,0 C 92 % 1029,1 hPa 0,0 l/m 0 min 0 min 0 W/m 9,7 km/h (2 Bft) 97,62 %
25.02.2022 20:18 3,4 C 2,8 C 0,0 C 92 % 1029,1 hPa 0,0 l/m 0 min 0 min 0 W/m 9,7 km/h (2 Bft) 97,87 %
25.02.2022 20:20 3,4 C 2,8 C 0,0 C 92 % 1029,1 hPa 0,0 l/m 0 min 0 min 0 W/m 6,4 km/h (2 Bft) 98,00 %
25.02.2022 20:22 3,4 C 2,8 C 0,0 C 92 % 1029,2 hPa 0,0 l/m 0 min 0 min 0 W/m 3,2 km/h (1 Bft) 97,87 %
25.02.2022 20:24 3,4 C 2,8 C 0,0 C 92 % 1029,2 hPa 0,0 l/m 0 min 0 min 0 W/m 3,2 km/h (1 Bft) 97,87 %
25.02.2022 20:26 3,4 C 2,8 C 0,0 C 92 % 1029,2 hPa 0,0 l/m 0 min 0 min 0 W/m 6,4 km/h (2 Bft) 97,92 %
25.02.2022 20:28 3,4 C 2,8 C 0,0 C 92 % 1029,2 hPa 0,0 l/m 0 min 0 min 0 W/m 6,4 km/h (2 Bft) 97,87 %
25.02.2022 20:30 3,3 C 2,8 C 0,0 C 92 % 1029,2 hPa 0,0 l/m 0 min 0 min 0 W/m 6,4 km/h (2 Bft) 97,62 %
25.02.2022 20:32 3,3 C 2,8 C 0,0 C 92 % 1029,3 hPa 0,0 l/m 0 min 0 min 0 W/m 12,9 km/h (3 Bft) 97,92 %
25.02.2022 20:34 3,3 C 2,8 C 0,0 C 92 % 1029,4 hPa 0,0 l/m 0 min 0 min 0 W/m 6,4 km/h (2 Bft) 96,00 %
25.02.2022 20:36 3,3 C 2,8 C 0,0 C 92 % 1029,4 hPa 0,0 l/m 0 min 0 min 0 W/m 6,4 km/h (2 Bft) 95,74 %
25.02.2022 20:38 3,3 C 2,2 C 0,0 C 92 % 1029,5 hPa 0,0 l/m 0 min 0 min 0 W/m 3,2 km/h (1 Bft) 95,74 %
25.02.2022 20:40 3,3 C 2,2 C 0,0 C 92 % 1029,5 hPa 0,0 l/m 0 min 0 min 0 W/m 6,4 km/h (2 Bft) 95,74 %
25.02.2022 20:42 3,2 C 2,2 C 0,0 C 92 % 1029,5 hPa 0,0 l/m 0 min 0 min 0 W/m 3,2 km/h (1 Bft) 94,29 %
25.02.2022 20:44 3,2 C 2,2 C 0,0 C 92 % 1029,5 hPa 0,0 l/m 0 min 0 min 0 W/m 3,2 km/h (1 Bft) 94,92 %
25.02.2022 20:46 3,2 C 2,2 C 0,0 C 92 % 1029,5 hPa 0,0 l/m 0 min 0 min 0 W/m 6,4 km/h (2 Bft) 97,14 %
25.02.2022 20:48 3,2 C 2,2 C 0,0 C 92 % 1029,5 hPa 0,0 l/m 0 min 0 min 0 W/m 3,2 km/h (1 Bft) 94,34 %
25.02.2022 20:50 3,2 C 2,2 C 0,0 C 93 % 1029,6 hPa 0,0 l/m 0 min 0 min 0 W/m 3,2 km/h (1 Bft) 95,92 %
25.02.2022 20:52 3,2 C 2,2 C 0,0 C 93 % 1029,6 hPa 0,0 l/m 0 min 0 min 0 W/m 3,2 km/h (1 Bft) 96,00 %
25.02.2022 20:54 3,2 C 2,2 C 0,0 C 93 % 1029,7 hPa 0,0 l/m 0 min 0 min 0 W/m 6,4 km/h (2 Bft) 97,14 %
25.02.2022 20:56 3,1 C 2,2 C 0,0 C 93 % 1029,7 hPa 0,0 l/m 0 min 0 min 0 W/m 3,2 km/h (1 Bft) 96,43 %
25.02.2022 20:58 3,1 C 2,2 C 0,0 C 93 % 1029,7 hPa 0,0 l/m 0 min 0 min 0 W/m 6,4 km/h (2 Bft) 97,87 %
25.02.2022 21:00 3,1 C 2,2 C -0,6 C 93 % 1029,7 hPa 0,0 l/m 0 min 0 min 0 W/m 9,7 km/h (2 Bft) 95,92 %
25.02.2022 21:02 3,1 C 2,2 C -0,6 C 93 % 1029,7 hPa 0,0 l/m 0 min 0 min 0 W/m 6,4 km/h (2 Bft) 94,00 %
25.02.2022 21:04 3,1 C 2,2 C -0,6 C 93 % 1029,8 hPa 0,0 l/m 0 min 0 min 0 W/m 6,4 km/h (2 Bft) 94,74 %
25.02.2022 21:06 3,1 C 2,2 C -0,6 C 93 % 1029,8 hPa 0,0 l/m 0 min 0 min 0 W/m 6,4 km/h (2 Bft) 93,62 %
25.02.2022 21:08 3,1 C 2,2 C -0,6 C 93 % 1029,8 hPa 0,0 l/m 0 min 0 min 0 W/m 3,2 km/h (1 Bft) 94,00 %
25.02.2022 21:10 3,1 C 2,2 C -0,6 C 93 % 1029,8 hPa 0,0 l/m 0 min 0 min 0 W/m 3,2 km/h (1 Bft) 95,74 %
25.02.2022 21:12 3,1 C 2,2 C -0,6 C 93 % 1029,9 hPa 0,0 l/m 0 min 0 min 0 W/m 6,4 km/h (2 Bft) 95,65 %
25.02.2022 21:14 3,0 C 2,2 C -0,6 C 93 % 1029,9 hPa 0,0 l/m 0 min 0 min 0 W/m 6,4 km/h (2 Bft) 95,45 %
25.02.2022 21:16 3,0 C 2,2 C -0,6 C 93 % 1030,0 hPa 0,0 l/m 0 min 0 min 0 W/m 6,4 km/h (2 Bft) 96,00 %
25.02.2022 21:18 3,0 C 2,2 C -0,6 C 93 % 1029,9 hPa 0,0 l/m 0 min 0 min 0 W/m 3,2 km/h (1 Bft) 97,87 %
25.02.2022 21:20 2,9 C 2,2 C -0,6 C 93 % 1030,0 hPa 0,0 l/m 0 min 0 min 0 W/m 3,2 km/h (1 Bft) 93,18 %
25.02.2022 21:22 2,9 C 1,7 C -0,6 C 93 % 1030,0 hPa 0,0 l/m 0 min 0 min 0 W/m 3,2 km/h (1 Bft) 96,00 %
25.02.2022 21:24 2,9 C 1,7 C -0,6 C 93 % 1030,0 hPa 0,0 l/m 0 min 0 min 0 W/m 3,2 km/h (1 Bft) 95,65 %
25.02.2022 21:26 2,9 C 1,7 C -0,6 C 93 % 1030,1 hPa 0,0 l/m 0 min 0 min 0 W/m 3,2 km/h (1 Bft) 95,45 %
25.02.2022 21:28 2,9 C 1,7 C -0,6 C 93 % 1030,1 hPa 0,0 l/m 0 min 0 min 0 W/m 3,2 km/h (1 Bft) 94,00 %
25.02.2022 21:30 2,8 C 1,7 C -0,6 C 93 % 1030,1 hPa 0,0 l/m 0 min 0 min 0 W/m 3,2 km/h (1 Bft) 95,74 %
25.02.2022 21:32 2,8 C 1,7 C -0,6 C 93 % 1030,1 hPa 0,0 l/m 0 min 0 min 0 W/m 6,4 km/h (2 Bft) 53,49 %
25.02.2022 21:34 2,8 C 1,7 C -0,6 C 93 % 1030,1 hPa 0,0 l/m 0 min 0 min 0 W/m 9,7 km/h (2 Bft) 96,00 %
25.02.2022 21:36 2,8 C 1,7 C -0,6 C 93 % 1030,2 hPa 0,0 l/m 0 min 0 min 0 W/m 3,2 km/h (1 Bft) 100,00 %
25.02.2022 21:38 2,8 C 1,7 C -0,6 C 93 % 1030,2 hPa 0,0 l/m 0 min 0 min 0 W/m 3,2 km/h (1 Bft) 100,00 %
25.02.2022 21:40 2,8 C 1,7 C -0,6 C 93 % 1030,3 hPa 0,0 l/m 0 min 0 min 0 W/m 3,2 km/h (1 Bft) 97,87 %
25.02.2022 21:42 2,8 C 1,7 C -0,6 C 93 % 1030,3 hPa 0,0 l/m 0 min 0 min 0 W/m 3,2 km/h (1 Bft) 97,87 %
25.02.2022 21:44 2,7 C 1,7 C -0,6 C 93 % 1030,3 hPa 0,0 l/m 0 min 0 min 0 W/m 3,2 km/h (1 Bft) 100,00 %
25.02.2022 21:46 2,7 C 1,7 C -1,1 C 93 % 1030,4 hPa 0,0 l/m 0 min 0 min 0 W/m 0,0 km/h (0 Bft) 100,00 %
25.02.2022 21:48 2,7 C 1,7 C -1,1 C 93 % 1030,4 hPa 0,0 l/m 0 min 0 min 0 W/m 0,0 km/h (0 Bft) 100,00 %
25.02.2022 21:50 2,7 C 1,1 C -1,1 C 93 % 1030,4 hPa 0,0 l/m 0 min 0 min 0 W/m 0,0 km/h (0 Bft) 97,73 %
25.02.2022 21:52 2,6 C 1,1 C -1,1 C 93 % 1030,3 hPa 0,0 l/m 0 min 0 min 0 W/m 0,0 km/h (0 Bft) 100,00 %
25.02.2022 21:54 2,6 C 1,1 C -1,1 C 93 % 1030,4 hPa 0,0 l/m 0 min 0 min 0 W/m 3,2 km/h (1 Bft) 100,00 %
25.02.2022 21:56 2,6 C 1,1 C -1,1 C 93 % 1030,4 hPa 0,0 l/m 0 min 0 min 0 W/m 0,0 km/h (0 Bft) 97,73 %
25.02.2022 21:58 2,5 C 1,1 C -1,1 C 93 % 1030,4 hPa 0,0 l/m 0 min 0 min 0 W/m 3,2 km/h (1 Bft) 97,87 %
25.02.2022 22:00 2,5 C 1,1 C -1,1 C 93 % 1030,4 hPa 0,0 l/m 0 min 0 min 0 W/m 3,2 km/h (1 Bft) 100,00 %
25.02.2022 22:02 2,4 C 1,1 C -1,1 C 93 % 1030,5 hPa 0,0 l/m 0 min 0 min 0 W/m 0,0 km/h (0 Bft) 98,11 %
25.02.2022 22:04 2,4 C 1,1 C -1,1 C 93 % 1030,5 hPa 0,0 l/m 0 min 0 min 0 W/m 3,2 km/h (1 Bft) 97,87 %
25.02.2022 22:06 2,4 C 1,1 C -1,1 C 93 % 1030,6 hPa 0,0 l/m 0 min 0 min 0 W/m 3,2 km/h (1 Bft) 100,00 %
25.02.2022 22:08 2,4 C 1,1 C -1,1 C 93 % 1030,5 hPa 0,0 l/m 0 min 0 min 0 W/m 3,2 km/h (1 Bft) 100,00 %
25.02.2022 22:10 2,4 C 1,1 C -1,1 C 93 % 1030,5 hPa 0,0 l/m 0 min 0 min 0 W/m 3,2 km/h (1 Bft) 100,00 %
25.02.2022 22:12 2,4 C 1,1 C -1,1 C 93 % 1030,6 hPa 0,0 l/m 0 min 0 min 0 W/m 3,2 km/h (1 Bft) 100,00 %
25.02.2022 22:14 2,3 C 1,1 C -1,1 C 94 % 1030,7 hPa 0,0 l/m 0 min 0 min 0 W/m 3,2 km/h (1 Bft) 100,00 %
25.02.2022 22:16 2,3 C 1,1 C -1,1 C 94 % 1030,7 hPa 0,0 l/m 0 min 0 min 0 W/m 3,2 km/h (1 Bft) 97,73 %
25.02.2022 22:18 2,3 C 1,1 C -1,7 C 94 % 1030,6 hPa 0,0 l/m 0 min 0 min 0 W/m 3,2 km/h (1 Bft) 100,00 %
25.02.2022 22:20 2,3 C 1,1 C -1,7 C 93 % 1030,7 hPa 0,0 l/m 0 min 0 min 0 W/m 3,2 km/h (1 Bft) 98,00 %
25.02.2022 22:22 2,2 C 1,1 C -1,7 C 93 % 1030,7 hPa 0,0 l/m 0 min 0 min 0 W/m 3,2 km/h (1 Bft) 100,00 %
25.02.2022 22:24 2,2 C 1,1 C -1,7 C 93 % 1030,8 hPa 0,0 l/m 0 min 0 min 0 W/m 3,2 km/h (1 Bft) 95,45 %
25.02.2022 22:26 2,2 C 1,1 C -1,7 C 93 % 1030,8 hPa 0,0 l/m 0 min 0 min 0 W/m 3,2 km/h (1 Bft) 98,00 %
25.02.2022 22:28 2,2 C 1,1 C -1,7 C 93 % 1030,8 hPa 0,0 l/m 0 min 0 min 0 W/m 0,0 km/h (0 Bft) 97,87 %
25.02.2022 22:30 2,2 C 0,6 C -1,7 C 93 % 1030,8 hPa 0,0 l/m 0 min 0 min 0 W/m 3,2 km/h (1 Bft) 95,74 %
25.02.2022 22:32 2,1 C 1,1 C -1,7 C 93 % 1030,9 hPa 0,0 l/m 0 min 0 min 0 W/m 0,0 km/h (0 Bft) 97,73 %
25.02.2022 22:34 2,1 C 0,6 C -1,7 C 93 % 1031,0 hPa 0,0 l/m 0 min 0 min 0 W/m 3,2 km/h (1 Bft) 97,83 %
25.02.2022 22:36 2,1 C 0,6 C -1,7 C 94 % 1031,0 hPa 0,0 l/m 0 min 0 min 0 W/m 0,0 km/h (0 Bft) 95,74 %
25.02.2022 22:38 2,1 C 0,6 C -1,7 C 94 % 1031,0 hPa 0,0 l/m 0 min 0 min 0 W/m 3,2 km/h (1 Bft) 97,87 %
25.02.2022 22:40 2,0 C 0,6 C -1,7 C 94 % 1031,0 hPa 0,0 l/m 0 min 0 min 0 W/m 3,2 km/h (1 Bft) 97,87 %
25.02.2022 22:42 2,0 C 0,6 C -1,7 C 94 % 1031,0 hPa 0,0 l/m 0 min 0 min 0 W/m 3,2 km/h (1 Bft) 93,62 %
25.02.2022 22:44 2,0 C 0,6 C -1,7 C 94 % 1031,0 hPa 0,0 l/m 0 min 0 min 0 W/m 3,2 km/h (1 Bft) 95,74 %
25.02.2022 22:46 1,9 C 0,6 C -1,7 C 94 % 1031,0 hPa 0,0 l/m 0 min 0 min 0 W/m 3,2 km/h (1 Bft) 95,65 %
25.02.2022 22:48 1,9 C 0,6 C -1,7 C 94 % 1031,1 hPa 0,0 l/m 0 min 0 min 0 W/m 3,2 km/h (1 Bft) 95,74 %
25.02.2022 22:50 1,9 C 0,6 C -2,2 C 93 % 1031,1 hPa 0,0 l/m 0 min 0 min 0 W/m 3,2 km/h (1 Bft) 95,74 %
25.02.2022 22:52 1,8 C 0,6 C -1,7 C 93 % 1031,1 hPa 0,0 l/m 0 min 0 min 0 W/m 0,0 km/h (0 Bft) 97,87 %
25.02.2022 22:54 1,8 C 0,6 C -1,7 C 93 % 1031,2 hPa 0,0 l/m 0 min 0 min 0 W/m 0,0 km/h (0 Bft) 95,74 %
25.02.2022 22:56 1,8 C 0,6 C -1,7 C 93 % 1031,1 hPa 0,0 l/m 0 min 0 min 0 W/m 0,0 km/h (0 Bft) 97,87 %
25.02.2022 22:58 1,8 C 0,6 C -2,2 C 93 % 1031,1 hPa 0,0 l/m 0 min 0 min 0 W/m 3,2 km/h (1 Bft) 97,83 %
25.02.2022 23:00 1,8 C 0,6 C -2,2 C 93 % 1031,1 hPa 0,0 l/m 0 min 0 min 0 W/m 0,0 km/h (0 Bft) 97,87 %
25.02.2022 23:02 1,7 C 0,0 C -2,2 C 93 % 1031,1 hPa 0,0 l/m 0 min 0 min 0 W/m 0,0 km/h (0 Bft) 97,87 %
25.02.2022 23:04 1,7 C 0,0 C -2,2 C 93 % 1031,2 hPa 0,0 l/m 0 min 0 min 0 W/m 0,0 km/h (0 Bft) 70,21 %
25.02.2022 23:06 1,7 C 0,0 C -2,2 C 94 % 1031,2 hPa 0,0 l/m 0 min 0 min 0 W/m 0,0 km/h (0 Bft) 82,98 %
25.02.2022 23:08 1,7 C 0,0 C -2,2 C 94 % 1031,3 hPa 0,0 l/m 0 min 0 min 0 W/m 0,0 km/h (0 Bft) 97,83 %
25.02.2022 23:10 1,7 C 0,0 C -2,2 C 94 % 1031,3 hPa 0,0 l/m 0 min 0 min 0 W/m 0,0 km/h (0 Bft) 97,87 %
25.02.2022 23:12 1,7 C 0,6 C -2,2 C 94 % 1031,2 hPa 0,0 l/m 0 min 0 min 0 W/m 3,2 km/h (1 Bft) 100,00 %
25.02.2022 23:14 1,7 C 0,6 C -2,2 C 94 % 1031,2 hPa 0,0 l/m 0 min 0 min 0 W/m 0,0 km/h (0 Bft) 100,00 %
25.02.2022 23:16 1,6 C 0,0 C -2,2 C 94 % 1031,3 hPa 0,0 l/m 0 min 0 min 0 W/m 0,0 km/h (0 Bft) 100,00 %
25.02.2022 23:18 1,6 C 0,0 C -2,2 C 94 % 1031,3 hPa 0,0 l/m 0 min 0 min 0 W/m 0,0 km/h (0 Bft) 100,00 %
25.02.2022 23:20 1,6 C 0,0 C -2,2 C 94 % 1031,3 hPa 0,0 l/m 0 min 0 min 0 W/m 0,0 km/h (0 Bft) 100,00 %
25.02.2022 23:22 1,6 C 0,0 C -2,2 C 94 % 1031,5 hPa 0,0 l/m 0 min 0 min 0 W/m 0,0 km/h (0 Bft) 100,00 %
25.02.2022 23:24 1,6 C 0,0 C -2,2 C 94 % 1031,4 hPa 0,0 l/m 0 min 0 min 0 W/m 0,0 km/h (0 Bft) 100,00 %
25.02.2022 23:26 1,6 C 0,0 C -2,2 C 94 % 1031,4 hPa 0,0 l/m 0 min 0 min 0 W/m 0,0 km/h (0 Bft) 100,00 %
25.02.2022 23:28 1,5 C 0,0 C -2,2 C 94 % 1031,4 hPa 0,0 l/m 0 min 0 min 0 W/m 0,0 km/h (0 Bft) 97,87 %
25.02.2022 23:30 1,5 C 0,0 C -2,2 C 94 % 1031,4 hPa 0,0 l/m 0 min 0 min 0 W/m 0,0 km/h (0 Bft) 100,00 %
25.02.2022 23:32 1,5 C 0,0 C -2,2 C 94 % 1031,4 hPa 0,0 l/m 0 min 0 min 0 W/m 0,0 km/h (0 Bft) 100,00 %
25.02.2022 23:34 1,4 C 0,0 C -2,2 C 94 % 1031,4 hPa 0,0 l/m 0 min 0 min 0 W/m 0,0 km/h (0 Bft) 97,87 %
25.02.2022 23:36 1,4 C 0,0 C -2,2 C 94 % 1031,5 hPa 0,0 l/m 0 min 0 min 0 W/m 0,0 km/h (0 Bft) 100,00 %
25.02.2022 23:38 1,4 C 0,0 C -2,2 C 94 % 1031,5 hPa 0,0 l/m 0 min 0 min 0 W/m 0,0 km/h (0 Bft) 100,00 %
25.02.2022 23:40 1,4 C 0,0 C -2,2 C 94 % 1031,4 hPa 0,0 l/m 0 min 0 min 0 W/m 0,0 km/h (0 Bft) 100,00 %
25.02.2022 23:42 1,3 C 0,0 C -2,2 C 94 % 1031,4 hPa 0,0 l/m 0 min 0 min 0 W/m 0,0 km/h (0 Bft) 100,00 %
25.02.2022 23:44 1,3 C 0,0 C -2,2 C 94 % 1031,4 hPa 0,0 l/m 0 min 0 min 0 W/m 0,0 km/h (0 Bft) 100,00 %
25.02.2022 23:46 1,3 C 0,0 C -2,2 C 94 % 1031,4 hPa 0,0 l/m 0 min 0 min 0 W/m 0,0 km/h (0 Bft) 100,00 %
25.02.2022 23:48 1,3 C 0,0 C -2,2 C 94 % 1031,4 hPa 0,0 l/m 0 min 0 min 0 W/m 0,0 km/h (0 Bft) 97,87 %
25.02.2022 23:50 1,3 C -0,6 C -2,8 C 94 % 1031,5 hPa 0,0 l/m 0 min 0 min 0 W/m 0,0 km/h (0 Bft) 100,00 %
25.02.2022 23:52 1,3 C -0,6 C -2,8 C 94 % 1031,6 hPa 0,0 l/m 0 min 0 min 0 W/m 0,0 km/h (0 Bft) 100,00 %
25.02.2022 23:54 1,2 C -0,6 C -2,8 C 94 % 1031,6 hPa 0,0 l/m 0 min 0 min 0 W/m 0,0 km/h (0 Bft) 97,87 %
25.02.2022 23:56 1,2 C -0,6 C -2,8 C 94 % 1031,6 hPa 0,0 l/m 0 min 0 min 0 W/m 0,0 km/h (0 Bft) 100,00 %
25.02.2022 23:58 1,2 C -0,6 C -2,2 C 94 % 1031,6 hPa 0,0 l/m 0 min 0 min 0 W/m 0,0 km/h (0 Bft) 97,87 %
_ Min-Zeit 23:54 23:50 23:50 12:52 00:00 - - - - 21:46 21:32
Minimum _ 1,2 C -0,6 C -2,8 C 81 % 1016,8 hPa - - - - 0,0 km/h (0 Bft) 53,49 %
_ Max-Zeit 12:40 13:58 11:22 00:00 23:52 13:26 08:02 08:32 13:58 07:32 00:00
Maximum _ 7,1 C 10,6 C 4,4 C 94 % 1031,6 hPa 0,4 l/m 2 min 2 min 494 W/m 38,6 km/h
SO (5 Bft)
100,00 %
Durchschnitt _ 3,7 C 3,4 C 0,2 C 89 % 1022,8 hPa #3,0 l/m #3:10 h #2:23 h 128 W/m 14,9 km/h (3 Bft) 97,22 %
© 2022 W. Hausmann